Time,TemperatureF,DewpointF,PressureIn,WindDirection,WindDirectionDegrees,WindSpeedMPH,WindSpeedGustMPH,Humidity,HourlyPrecipIn,Conditions,Clouds,dailyrainin,SoftwareType,DateUTC
2013-02-14 00:00:00,40.5,21.7,30.04,North,0,0.0,0.0,47,0.00,,,0.00,WUHU216HW,2013-02-14 07:00:00,
2013-02-14 00:01:00,40.5,21.7,30.04,North,0,0.0,0.0,47,0.00,,,0.00,WUHU216HW,2013-02-14 07:01:00,
2013-02-14 00:02:00,40.5,21.7,30.04,North,0,0.0,0.0,47,0.00,,,0.00,WUHU216HW,2013-02-14 07:02:00,
2013-02-14 00:04:00,40.3,21.5,30.04,North,0,0.0,0.0,47,0.00,,,0.00,WUHU216HW,2013-02-14 07:04:00,
2013-02-14 00:05:00,40.3,21.5,30.04,North,0,0.0,0.0,47,0.00,,,0.00,WUHU216HW,2013-02-14 07:05:00,
2013-02-14 00:07:00,40.3,22.1,30.04,North,0,0.0,0.0,48,0.00,,,0.00,WUHU216HW,2013-02-14 07:07:00,
2013-02-14 00:09:00,40.3,22.1,30.04,North,0,0.0,0.0,48,0.00,,,0.00,WUHU216HW,2013-02-14 07:09:00,
2013-02-14 00:12:00,40.1,21.9,30.04,North,0,0.0,0.0,48,0.00,,,0.00,WUHU216HW,2013-02-14 07:12:00,
2013-02-14 00:14:00,40.1,21.9,30.04,North,0,0.0,0.0,48,0.00,,,0.00,WUHU216HW,2013-02-14 07:14:00,
2013-02-14 00:17:00,40.1,21.9,30.04,North,0,0.0,0.0,48,0.00,,,0.00,WUHU216HW,2013-02-14 07:17:00,
2013-02-14 00:19:00,40.1,21.9,30.04,North,0,0.0,0.0,48,0.00,,,0.00,WUHU216HW,2013-02-14 07:19:00,
2013-02-14 00:22:00,40.1,21.9,30.04,North,0,0.0,0.0,48,0.00,,,0.00,WUHU216HW,2013-02-14 07:22:00,
2013-02-14 00:23:00,40.1,21.9,30.04,North,0,0.0,0.0,48,0.00,,,0.00,WUHU216HW,2013-02-14 07:23:00,
2013-02-14 00:24:00,40.1,21.9,30.04,North,0,0.0,0.0,48,0.00,,,0.00,WUHU216HW,2013-02-14 07:24:00,
2013-02-14 00:25:00,40.1,21.9,30.04,North,0,0.0,0.0,48,0.00,,,0.00,WUHU216HW,2013-02-14 07:25:00,
2013-02-14 00:28:00,40.0,21.8,30.04,North,0,0.0,0.0,48,0.00,,,0.00,WUHU216HW,2013-02-14 07:28:00,
2013-02-14 00:29:00,40.0,21.8,30.04,North,0,0.0,0.0,48,0.00,,,0.00,WUHU216HW,2013-02-14 07:29:00,
2013-02-14 00:30:00,40.0,21.8,30.04,North,0,0.0,0.0,48,0.00,,,0.00,WUHU216HW,2013-02-14 07:30:00,
2013-02-14 00:33:00,40.0,21.8,30.04,North,0,0.0,0.0,48,0.00,,,0.00,WUHU216HW,2013-02-14 07:33:00,
2013-02-14 00:34:00,40.0,21.8,30.04,North,0,0.0,0.0,48,0.00,,,0.00,WUHU216HW,2013-02-14 07:34:00,
2013-02-14 00:35:00,39.8,21.6,30.04,North,0,0.0,0.0,48,0.00,,,0.00,WUHU216HW,2013-02-14 07:35:00,
2013-02-14 00:38:00,39.8,21.6,30.04,North,0,0.0,0.0,48,0.00,,,0.00,WUHU216HW,2013-02-14 07:38:00,
2013-02-14 00:40:00,39.6,21.4,30.04,North,0,0.0,0.0,48,0.00,,,0.00,WUHU216HW,2013-02-14 07:40:00,
2013-02-14 00:44:00,39.2,21.1,30.04,North,0,0.0,0.0,48,0.00,,,0.00,WUHU216HW,2013-02-14 07:44:00,
2013-02-14 00:45:00,39.2,21.1,30.04,North,0,0.0,0.0,48,0.00,,,0.00,WUHU216HW,2013-02-14 07:45:00,
2013-02-14 00:46:00,39.2,21.1,30.04,North,0,0.0,0.0,48,0.00,,,0.00,WUHU216HW,2013-02-14 07:46:00,
2013-02-14 00:49:00,38.9,21.3,30.04,North,0,0.0,0.0,49,0.00,,,0.00,WUHU216HW,2013-02-14 07:49:00,
2013-02-14 00:51:00,38.7,21.2,30.04,North,0,0.0,0.0,49,0.00,,,0.00,WUHU216HW,2013-02-14 07:51:00,
2013-02-14 00:54:00,38.5,21.0,30.04,North,0,0.0,0.0,49,0.00,,,0.00,WUHU216HW,2013-02-14 07:54:00,
2013-02-14 00:56:00,38.5,21.0,30.04,North,0,0.0,0.0,49,0.00,,,0.00,WUHU216HW,2013-02-14 07:56:00,
2013-02-14 00:59:00,38.5,21.5,30.04,North,0,0.0,0.0,50,0.00,,,0.00,WUHU216HW,2013-02-14 07:59:00,
2013-02-14 01:00:00,38.3,21.3,30.04,North,0,0.0,0.0,50,0.00,,,0.00,WUHU216HW,2013-02-14 08:00:00,
2013-02-14 01:02:00,38.3,21.3,30.04,North,0,0.0,0.0,50,0.00,,,0.00,WUHU216HW,2013-02-14 08:02:00,
2013-02-14 01:03:00,38.3,21.3,30.04,North,0,0.0,0.0,50,0.00,,,0.00,WUHU216HW,2013-02-14 08:03:00,
2013-02-14 01:04:00,38.3,21.3,30.04,North,0,0.0,0.0,50,0.00,,,0.00,WUHU216HW,2013-02-14 08:04:00,
2013-02-14 01:06:00,38.3,21.3,30.04,North,0,0.0,0.0,50,0.00,,,0.00,WUHU216HW,2013-02-14 08:06:00,
2013-02-14 01:07:00,38.3,21.3,30.04,North,0,0.0,0.0,50,0.00,,,0.00,WUHU216HW,2013-02-14 08:07:00,
2013-02-14 01:08:00,38.3,21.3,30.04,North,0,0.0,0.0,50,0.00,,,0.00,WUHU216HW,2013-02-14 08:08:00,
2013-02-14 01:10:00,38.3,21.3,30.04,North,0,0.0,0.0,50,0.00,,,0.00,WUHU216HW,2013-02-14 08:10:00,
2013-02-14 01:11:00,38.3,21.3,30.04,North,0,0.0,0.0,50,0.00,,,0.00,WUHU216HW,2013-02-14 08:11:00,
2013-02-14 01:13:00,38.3,21.3,30.04,North,0,0.0,0.0,50,0.00,,,0.00,WUHU216HW,2013-02-14 08:13:00,
2013-02-14 01:14:00,38.3,21.3,30.04,North,0,0.0,0.0,50,0.00,,,0.00,WUHU216HW,2013-02-14 08:14:00,
2013-02-14 01:15:00,38.3,21.3,30.04,North,0,0.0,0.0,50,0.00,,,0.00,WUHU216HW,2013-02-14 08:15:00,
2013-02-14 01:16:00,38.3,21.3,30.04,North,0,0.0,0.0,50,0.00,,,0.00,WUHU216HW,2013-02-14 08:16:00,
2013-02-14 01:19:00,38.3,21.3,30.04,North,0,0.0,0.0,50,0.00,,,0.00,WUHU216HW,2013-02-14 08:19:00,
2013-02-14 01:20:00,38.3,21.3,30.04,North,0,0.0,0.0,50,0.00,,,0.00,WUHU216HW,2013-02-14 08:20:00,
2013-02-14 01:21:00,38.3,21.3,30.04,North,0,0.0,0.0,50,0.00,,,0.00,WUHU216HW,2013-02-14 08:21:00,
2013-02-14 01:24:00,38.3,21.8,30.04,North,0,0.0,0.0,51,0.00,,,0.00,WUHU216HW,2013-02-14 08:24:00,
2013-02-14 01:25:00,38.3,21.8,30.04,North,0,0.0,0.0,51,0.00,,,0.00,WUHU216HW,2013-02-14 08:25:00,
2013-02-14 01:26:00,38.2,21.6,30.04,North,0,0.0,0.0,51,0.00,,,0.00,WUHU216HW,2013-02-14 08:26:00,
2013-02-14 01:29:00,38.2,21.6,30.04,North,0,0.0,0.0,51,0.00,,,0.00,WUHU216HW,2013-02-14 08:29:00,
2013-02-14 01:31:00,38.2,21.6,30.04,North,0,0.0,0.0,51,0.00,,,0.00,WUHU216HW,2013-02-14 08:31:00,
2013-02-14 01:32:00,38.2,21.6,30.04,North,0,0.0,0.0,51,0.00,,,0.00,WUHU216HW,2013-02-14 08:32:00,
2013-02-14 01:34:00,38.2,21.6,30.04,North,0,0.0,0.0,51,0.00,,,0.00,WUHU216HW,2013-02-14 08:34:00,
2013-02-14 01:36:00,38.2,21.6,30.04,North,0,0.0,0.0,51,0.00,,,0.00,WUHU216HW,2013-02-14 08:36:00,
2013-02-14 01:37:00,38.2,21.6,30.04,North,0,0.0,0.0,51,0.00,,,0.00,WUHU216HW,2013-02-14 08:37:00,
2013-02-14 01:40:00,38.2,21.6,30.04,North,0,0.0,0.0,51,0.00,,,0.00,WUHU216HW,2013-02-14 08:40:00,
2013-02-14 01:42:00,38.0,21.4,30.04,North,0,0.0,0.0,51,0.00,,,0.00,WUHU216HW,2013-02-14 08:42:00,
2013-02-14 01:46:00,37.8,21.2,30.04,North,0,0.0,0.0,51,0.00,,,0.00,WUHU216HW,2013-02-14 08:46:00,
2013-02-14 01:47:00,37.8,21.2,30.04,North,0,0.0,0.0,51,0.00,,,0.00,WUHU216HW,2013-02-14 08:47:00,
2013-02-14 01:48:00,37.8,21.7,30.04,North,0,0.0,0.0,52,0.00,,,0.00,WUHU216HW,2013-02-14 08:48:00,
2013-02-14 01:51:00,37.8,21.7,30.04,North,0,0.0,0.0,52,0.00,,,0.00,WUHU216HW,2013-02-14 08:51:00,
2013-02-14 01:52:00,37.8,21.7,30.04,North,0,0.0,0.0,52,0.00,,,0.00,WUHU216HW,2013-02-14 08:52:00,
2013-02-14 01:54:00,37.8,22.1,30.04,North,0,0.0,0.0,53,0.00,,,0.00,WUHU216HW,2013-02-14 08:54:00,
2013-02-14 01:55:00,37.8,21.7,30.04,North,0,0.0,0.0,52,0.00,,,0.00,WUHU216HW,2013-02-14 08:55:00,
2013-02-14 01:57:00,37.8,21.7,30.04,North,0,0.0,0.0,52,0.00,,,0.00,WUHU216HW,2013-02-14 08:57:00,
2013-02-14 01:59:00,37.8,21.7,30.04,North,0,0.0,0.0,52,0.00,,,0.00,WUHU216HW,2013-02-14 08:59:00,
2013-02-14 02:00:00,37.8,21.7,30.04,North,0,0.0,0.0,52,0.00,,,0.00,WUHU216HW,2013-02-14 09:00:00,
2013-02-14 02:02:00,37.8,21.7,30.04,North,0,0.0,0.0,52,0.00,,,0.00,WUHU216HW,2013-02-14 09:02:00,
2013-02-14 02:04:00,37.8,21.7,30.04,North,0,0.0,0.0,52,0.00,,,0.00,WUHU216HW,2013-02-14 09:04:00,
2013-02-14 02:06:00,37.8,21.7,30.04,North,0,0.0,0.0,52,0.00,,,0.00,WUHU216HW,2013-02-14 09:06:00,
2013-02-14 02:08:00,37.8,21.2,30.04,North,0,0.0,0.0,51,0.00,,,0.00,WUHU216HW,2013-02-14 09:08:00,
2013-02-14 02:09:00,37.8,21.2,30.04,North,0,0.0,0.0,51,0.00,,,0.00,WUHU216HW,2013-02-14 09:09:00,
2013-02-14 02:10:00,37.8,21.2,30.04,North,0,0.0,0.0,51,0.00,,,0.00,WUHU216HW,2013-02-14 09:10:00,
2013-02-14 02:11:00,37.8,21.2,30.04,North,0,0.0,0.0,51,0.00,,,0.00,WUHU216HW,2013-02-14 09:11:00,
2013-02-14 02:13:00,37.8,21.2,30.04,North,0,0.0,0.0,51,0.00,,,0.00,WUHU216HW,2013-02-14 09:13:00,
2013-02-14 02:15:00,37.8,21.2,30.04,North,0,0.0,0.0,51,0.00,,,0.00,WUHU216HW,2013-02-14 09:15:00,
2013-02-14 02:16:00,37.8,21.2,30.04,North,0,0.0,0.0,51,0.00,,,0.00,WUHU216HW,2013-02-14 09:16:00,
2013-02-14 02:18:00,37.8,21.2,30.04,North,0,0.0,0.0,51,0.00,,,0.00,WUHU216HW,2013-02-14 09:18:00,
2013-02-14 02:20:00,37.8,21.2,30.04,North,0,0.0,0.0,51,0.00,,,0.00,WUHU216HW,2013-02-14 09:20:00,
2013-02-14 02:23:00,38.0,21.4,30.04,North,0,0.0,0.0,51,0.00,,,0.00,WUHU216HW,2013-02-14 09:23:00,
2013-02-14 02:24:00,38.0,21.4,30.04,North,0,0.0,0.0,51,0.00,,,0.00,WUHU216HW,2013-02-14 09:24:00,
2013-02-14 02:25:00,38.0,21.4,30.04,North,0,0.0,0.0,51,0.00,,,0.00,WUHU216HW,2013-02-14 09:25:00,
2013-02-14 02:26:00,38.0,21.4,30.04,North,0,0.0,0.0,51,0.00,,,0.00,WUHU216HW,2013-02-14 09:26:00,
2013-02-14 02:28:00,38.0,21.4,30.04,North,0,0.0,0.0,51,0.00,,,0.00,WUHU216HW,2013-02-14 09:28:00,
2013-02-14 02:29:00,38.0,21.4,30.04,North,0,0.0,0.0,51,0.00,,,0.00,WUHU216HW,2013-02-14 09:29:00,
2013-02-14 02:30:00,38.0,21.4,30.04,North,0,0.0,0.0,51,0.00,,,0.00,WUHU216HW,2013-02-14 09:30:00,
2013-02-14 02:31:00,38.0,21.4,30.04,North,0,0.0,0.0,51,0.00,,,0.00,WUHU216HW,2013-02-14 09:31:00,
2013-02-14 02:33:00,38.0,21.4,30.04,North,0,0.0,0.0,51,0.00,,,0.00,WUHU216HW,2013-02-14 09:33:00,
2013-02-14 02:35:00,38.0,21.4,30.04,North,0,0.0,0.0,51,0.00,,,0.00,WUHU216HW,2013-02-14 09:35:00,
2013-02-14 02:36:00,38.0,21.4,30.04,North,0,0.0,0.0,51,0.00,,,0.00,WUHU216HW,2013-02-14 09:36:00,
2013-02-14 02:37:00,38.0,21.4,30.04,North,0,0.0,0.0,51,0.00,,,0.00,WUHU216HW,2013-02-14 09:37:00,
2013-02-14 02:38:00,38.0,21.4,30.04,North,0,0.0,0.0,51,0.00,,,0.00,WUHU216HW,2013-02-14 09:38:00,
2013-02-14 02:40:00,38.0,21.4,30.04,North,0,0.0,0.0,51,0.00,,,0.00,WUHU216HW,2013-02-14 09:40:00,
2013-02-14 02:41:00,38.0,21.4,30.04,North,0,0.0,0.0,51,0.00,,,0.00,WUHU216HW,2013-02-14 09:41:00,
2013-02-14 02:43:00,38.0,21.4,30.04,North,0,0.0,0.0,51,0.00,,,0.00,WUHU216HW,2013-02-14 09:43:00,
2013-02-14 02:44:00,37.8,21.2,30.04,North,0,0.0,0.0,51,0.00,,,0.00,WUHU216HW,2013-02-14 09:44:00,
2013-02-14 02:45:00,37.8,21.2,30.04,North,0,0.0,0.0,51,0.00,,,0.00,WUHU216HW,2013-02-14 09:45:00,
2013-02-14 02:47:00,37.8,21.2,30.04,North,0,0.0,0.0,51,0.00,,,0.00,WUHU216HW,2013-02-14 09:47:00,
2013-02-14 02:48:00,37.8,21.2,30.04,North,0,0.0,0.0,51,0.00,,,0.00,WUHU216HW,2013-02-14 09:48:00,
2013-02-14 02:50:00,37.6,21.2,30.04,North,0,0.0,0.0,51,0.00,,,0.00,WUHU216HW,2013-02-14 09:50:00,
2013-02-14 02:51:00,37.6,21.2,30.04,North,0,0.0,0.0,51,0.00,,,0.00,WUHU216HW,2013-02-14 09:51:00,
2013-02-14 02:53:00,37.6,21.2,30.04,North,0,0.0,0.0,51,0.00,,,0.00,WUHU216HW,2013-02-14 09:53:00,
2013-02-14 02:56:00,37.4,21.0,30.04,North,0,0.0,0.0,51,0.00,,,0.00,WUHU216HW,2013-02-14 09:56:00,
2013-02-14 02:58:00,37.1,21.1,30.03,North,0,0.0,0.0,52,0.00,,,0.00,WUHU216HW,2013-02-14 09:58:00,
2013-02-14 02:59:00,37.1,21.1,30.03,North,0,0.0,0.0,52,0.00,,,0.00,WUHU216HW,2013-02-14 09:59:00,
2013-02-14 03:01:00,36.9,20.9,30.03,North,0,0.0,0.0,52,0.00,,,0.00,WUHU216HW,2013-02-14 10:01:00,
2013-02-14 03:02:00,36.9,20.9,30.03,North,0,0.0,0.0,52,0.00,,,0.00,WUHU216HW,2013-02-14 10:02:00,
2013-02-14 03:04:00,36.7,20.7,30.03,North,0,0.0,0.0,52,0.00,,,0.00,WUHU216HW,2013-02-14 10:04:00,
2013-02-14 03:05:00,36.7,20.7,30.03,North,0,0.0,0.0,52,0.00,,,0.00,WUHU216HW,2013-02-14 10:05:00,
2013-02-14 03:06:00,36.7,21.2,30.03,North,0,0.0,0.0,53,0.00,,,0.00,WUHU216HW,2013-02-14 10:06:00,
2013-02-14 03:07:00,36.5,21.0,30.03,North,0,0.0,0.0,53,0.00,,,0.00,WUHU216HW,2013-02-14 10:07:00,
2013-02-14 03:10:00,36.5,21.0,30.03,North,0,0.0,0.0,53,0.00,,,0.00,WUHU216HW,2013-02-14 10:10:00,
2013-02-14 03:11:00,36.5,21.0,30.03,North,0,0.0,0.0,53,0.00,,,0.00,WUHU216HW,2013-02-14 10:11:00,
2013-02-14 03:12:00,36.4,20.9,30.03,North,0,0.0,0.0,53,0.00,,,0.00,WUHU216HW,2013-02-14 10:12:00,
2013-02-14 03:16:00,36.4,20.9,30.03,North,0,0.0,0.0,53,0.00,,,0.00,WUHU216HW,2013-02-14 10:16:00,
2013-02-14 03:18:00,36.4,20.9,30.03,North,0,0.0,0.0,53,0.00,,,0.00,WUHU216HW,2013-02-14 10:18:00,
2013-02-14 03:21:00,36.2,20.7,30.03,North,0,0.0,0.0,53,0.00,,,0.00,WUHU216HW,2013-02-14 10:21:00,
2013-02-14 03:22:00,36.2,21.2,30.03,North,0,0.0,0.0,54,0.00,,,0.00,WUHU216HW,2013-02-14 10:22:00,
2013-02-14 03:23:00,36.2,21.2,30.03,North,0,0.0,0.0,54,0.00,,,0.00,WUHU216HW,2013-02-14 10:23:00,
2013-02-14 03:26:00,36.2,21.2,30.03,North,0,0.0,0.0,54,0.00,,,0.00,WUHU216HW,2013-02-14 10:26:00,
2013-02-14 03:28:00,36.0,21.0,30.03,North,0,0.0,0.0,54,0.00,,,0.00,WUHU216HW,2013-02-14 10:28:00,
2013-02-14 03:29:00,36.0,21.4,30.03,North,0,0.0,0.0,55,0.00,,,0.00,WUHU216HW,2013-02-14 10:29:00,
2013-02-14 03:31:00,36.0,21.4,30.03,North,0,0.0,0.0,55,0.00,,,0.00,WUHU216HW,2013-02-14 10:31:00,
2013-02-14 03:33:00,36.0,21.4,30.03,North,0,0.0,0.0,55,0.00,,,0.00,WUHU216HW,2013-02-14 10:33:00,
2013-02-14 03:34:00,36.0,21.4,30.03,North,0,0.0,0.0,55,0.00,,,0.00,WUHU216HW,2013-02-14 10:34:00,
2013-02-14 03:36:00,36.0,21.4,30.02,North,0,0.0,0.0,55,0.00,,,0.00,WUHU216HW,2013-02-14 10:36:00,
2013-02-14 03:38:00,36.0,21.4,30.02,North,0,0.0,0.0,55,0.00,,,0.00,WUHU216HW,2013-02-14 10:38:00,
2013-02-14 03:39:00,36.0,21.4,30.02,North,0,0.0,0.0,55,0.00,,,0.00,WUHU216HW,2013-02-14 10:39:00,
2013-02-14 03:41:00,36.0,21.4,30.03,North,0,0.0,0.0,55,0.00,,,0.00,WUHU216HW,2013-02-14 10:41:00,
2013-02-14 03:43:00,36.0,21.4,30.03,North,0,0.0,0.0,55,0.00,,,0.00,WUHU216HW,2013-02-14 10:43:00,
2013-02-14 03:45:00,36.0,21.4,30.03,North,0,0.0,0.0,55,0.00,,,0.00,WUHU216HW,2013-02-14 10:45:00,
2013-02-14 03:47:00,36.0,21.4,30.03,North,0,0.0,0.0,55,0.00,,,0.00,WUHU216HW,2013-02-14 10:47:00,
2013-02-14 03:49:00,35.8,21.3,30.03,North,0,0.0,0.0,55,0.00,,,0.00,WUHU216HW,2013-02-14 10:49:00,
2013-02-14 03:50:00,35.8,21.3,30.03,North,0,0.0,0.0,55,0.00,,,0.00,WUHU216HW,2013-02-14 10:50:00,
2013-02-14 03:51:00,35.8,21.3,30.03,North,0,0.0,0.0,55,0.00,,,0.00,WUHU216HW,2013-02-14 10:51:00,
2013-02-14 03:52:00,35.8,21.3,30.03,North,0,0.0,0.0,55,0.00,,,0.00,WUHU216HW,2013-02-14 10:52:00,
2013-02-14 03:54:00,35.6,21.5,30.03,North,0,0.0,0.0,56,0.00,,,0.00,WUHU216HW,2013-02-14 10:54:00,
2013-02-14 03:57:00,35.6,21.5,30.03,North,0,0.0,0.0,56,0.00,,,0.00,WUHU216HW,2013-02-14 10:57:00,
2013-02-14 03:58:00,35.6,21.5,30.03,North,0,0.0,0.0,56,0.00,,,0.00,WUHU216HW,2013-02-14 10:58:00,
2013-02-14 03:59:00,35.6,21.5,30.03,North,0,0.0,0.0,56,0.00,,,0.00,WUHU216HW,2013-02-14 10:59:00,
2013-02-14 04:03:00,35.5,21.8,30.03,North,0,0.0,0.0,57,0.00,,,0.00,WUHU216HW,2013-02-14 11:03:00,
2013-02-14 04:04:00,35.5,21.8,30.02,North,0,0.0,0.0,57,0.00,,,0.00,WUHU216HW,2013-02-14 11:04:00,
2013-02-14 04:05:00,35.5,21.8,30.02,North,0,0.0,0.0,57,0.00,,,0.00,WUHU216HW,2013-02-14 11:05:00,
2013-02-14 04:08:00,35.5,21.8,30.02,North,0,0.0,0.0,57,0.00,,,0.00,WUHU216HW,2013-02-14 11:08:00,
2013-02-14 04:09:00,35.5,21.8,30.02,North,0,0.0,0.0,57,0.00,,,0.00,WUHU216HW,2013-02-14 11:09:00,
2013-02-14 04:10:00,35.5,21.8,30.02,North,0,0.0,0.0,57,0.00,,,0.00,WUHU216HW,2013-02-14 11:10:00,
2013-02-14 04:11:00,35.5,21.8,30.02,North,0,0.0,0.0,57,0.00,,,0.00,WUHU216HW,2013-02-14 11:11:00,
2013-02-14 04:14:00,35.3,21.6,30.02,North,0,0.0,0.0,57,0.00,,,0.00,WUHU216HW,2013-02-14 11:14:00,
2013-02-14 04:16:00,35.3,21.6,30.02,North,0,0.0,0.0,57,0.00,,,0.00,WUHU216HW,2013-02-14 11:16:00,
2013-02-14 04:19:00,35.3,21.6,30.03,North,0,0.0,0.0,57,0.00,,,0.00,WUHU216HW,2013-02-14 11:19:00,
2013-02-14 04:21:00,35.3,21.6,30.03,North,0,0.0,0.0,57,0.00,,,0.00,WUHU216HW,2013-02-14 11:21:00,
2013-02-14 04:22:00,35.3,21.6,30.03,North,0,0.0,0.0,57,0.00,,,0.00,WUHU216HW,2013-02-14 11:22:00,
2013-02-14 04:24:00,35.3,21.6,30.03,North,0,0.0,0.0,57,0.00,,,0.00,WUHU216HW,2013-02-14 11:24:00,
2013-02-14 04:26:00,35.3,22.0,30.03,North,0,0.0,0.0,58,0.00,,,0.00,WUHU216HW,2013-02-14 11:26:00,
2013-02-14 04:27:00,35.3,22.0,30.03,North,0,0.0,0.0,58,0.00,,,0.00,WUHU216HW,2013-02-14 11:27:00,
2013-02-14 04:28:00,35.3,22.0,30.02,North,0,0.0,0.0,58,0.00,,,0.00,WUHU216HW,2013-02-14 11:28:00,
2013-02-14 04:30:00,35.3,22.0,30.02,North,0,0.0,0.0,58,0.00,,,0.00,WUHU216HW,2013-02-14 11:30:00,
2013-02-14 04:31:00,35.3,22.0,30.02,North,0,0.0,0.0,58,0.00,,,0.00,WUHU216HW,2013-02-14 11:31:00,
2013-02-14 04:32:00,35.5,22.1,30.02,North,0,0.0,0.0,58,0.00,,,0.00,WUHU216HW,2013-02-14 11:32:00,
2013-02-14 04:33:00,35.5,22.1,30.02,North,0,0.0,0.0,58,0.00,,,0.00,WUHU216HW,2013-02-14 11:33:00,
2013-02-14 04:36:00,35.5,22.1,30.03,North,0,0.0,0.0,58,0.00,,,0.00,WUHU216HW,2013-02-14 11:36:00,
2013-02-14 04:37:00,35.6,22.3,30.03,North,0,0.0,0.0,58,0.00,,,0.00,WUHU216HW,2013-02-14 11:37:00,
2013-02-14 04:38:00,35.6,22.3,30.03,North,0,0.0,0.0,58,0.00,,,0.00,WUHU216HW,2013-02-14 11:38:00,
2013-02-14 04:42:00,35.6,22.0,30.03,North,0,0.0,0.0,57,0.00,,,0.00,WUHU216HW,2013-02-14 11:42:00,
2013-02-14 04:43:00,35.6,22.3,30.03,North,0,0.0,0.0,58,0.00,,,0.00,WUHU216HW,2013-02-14 11:43:00,
2013-02-14 04:44:00,35.6,22.3,30.03,North,0,0.0,0.0,58,0.00,,,0.00,WUHU216HW,2013-02-14 11:44:00,
2013-02-14 04:45:00,35.6,22.3,30.03,North,0,0.0,0.0,58,0.00,,,0.00,WUHU216HW,2013-02-14 11:45:00,
2013-02-14 04:47:00,35.6,22.3,30.03,North,0,0.0,0.0,58,0.00,,,0.00,WUHU216HW,2013-02-14 11:47:00,
2013-02-14 04:49:00,35.6,22.3,30.03,North,0,0.0,0.0,58,0.00,,,0.00,WUHU216HW,2013-02-14 11:49:00,
2013-02-14 04:50:00,35.6,22.3,30.03,North,0,0.0,0.0,58,0.00,,,0.00,WUHU216HW,2013-02-14 11:50:00,
2013-02-14 04:52:00,35.6,22.3,30.03,North,0,0.0,0.0,58,0.00,,,0.00,WUHU216HW,2013-02-14 11:52:00,
2013-02-14 04:54:00,35.6,22.3,30.04,North,0,0.0,0.0,58,0.00,,,0.00,WUHU216HW,2013-02-14 11:54:00,
2013-02-14 04:56:00,35.6,22.3,30.04,North,0,0.0,0.0,58,0.00,,,0.00,WUHU216HW,2013-02-14 11:56:00,
2013-02-14 04:58:00,35.6,22.3,30.04,North,0,0.0,0.0,58,0.00,,,0.00,WUHU216HW,2013-02-14 11:58:00,
2013-02-14 05:01:00,35.6,22.3,30.04,North,0,0.0,0.0,58,0.00,,,0.00,WUHU216HW,2013-02-14 12:01:00,
2013-02-14 05:02:00,35.6,22.3,30.04,North,0,0.0,0.0,58,0.00,,,0.00,WUHU216HW,2013-02-14 12:02:00,
2013-02-14 05:03:00,35.5,22.1,30.04,North,0,0.0,0.0,58,0.00,,,0.00,WUHU216HW,2013-02-14 12:03:00,
2013-02-14 05:06:00,35.5,22.1,30.04,North,0,0.0,0.0,58,0.00,,,0.00,WUHU216HW,2013-02-14 12:06:00,
2013-02-14 05:07:00,35.5,22.1,30.04,North,0,0.0,0.0,58,0.00,,,0.00,WUHU216HW,2013-02-14 12:07:00,
2013-02-14 05:08:00,35.3,22.0,30.04,North,0,0.0,0.0,58,0.00,,,0.00,WUHU216HW,2013-02-14 12:08:00,
2013-02-14 05:09:00,35.3,22.0,30.04,North,0,0.0,0.0,58,0.00,,,0.00,WUHU216HW,2013-02-14 12:09:00,
2013-02-14 05:12:00,35.1,21.8,30.04,North,0,0.0,0.0,58,0.00,,,0.00,WUHU216HW,2013-02-14 12:12:00,
2013-02-14 05:13:00,35.1,21.8,30.04,North,0,0.0,0.0,58,0.00,,,0.00,WUHU216HW,2013-02-14 12:13:00,
2013-02-14 05:15:00,34.9,21.6,30.04,North,0,0.0,0.0,58,0.00,,,0.00,WUHU216HW,2013-02-14 12:15:00,
2013-02-14 05:17:00,34.9,21.6,30.04,North,0,0.0,0.0,58,0.00,,,0.00,WUHU216HW,2013-02-14 12:17:00,
2013-02-14 05:18:00,34.9,21.6,30.04,North,0,0.0,0.0,58,0.00,,,0.00,WUHU216HW,2013-02-14 12:18:00,
2013-02-14 05:19:00,34.9,21.6,30.04,North,0,0.0,0.0,58,0.00,,,0.00,WUHU216HW,2013-02-14 12:19:00,
2013-02-14 05:21:00,34.7,21.4,30.04,North,0,0.0,0.0,58,0.00,,,0.00,WUHU216HW,2013-02-14 12:21:00,
2013-02-14 05:23:00,34.7,21.4,30.04,North,0,0.0,0.0,58,0.00,,,0.00,WUHU216HW,2013-02-14 12:23:00,
2013-02-14 05:24:00,34.7,21.4,30.04,North,0,0.0,0.0,58,0.00,,,0.00,WUHU216HW,2013-02-14 12:24:00,
2013-02-14 05:25:00,34.7,21.4,30.04,North,0,0.0,0.0,58,0.00,,,0.00,WUHU216HW,2013-02-14 12:25:00,
2013-02-14 05:27:00,34.7,21.4,30.04,North,0,0.0,0.0,58,0.00,,,0.00,WUHU216HW,2013-02-14 12:27:00,
2013-02-14 05:28:00,34.7,21.4,30.04,North,0,0.0,0.0,58,0.00,,,0.00,WUHU216HW,2013-02-14 12:28:00,
2013-02-14 05:29:00,34.7,21.4,30.04,North,0,0.0,0.0,58,0.00,,,0.00,WUHU216HW,2013-02-14 12:29:00,
2013-02-14 05:30:00,34.7,21.4,30.04,North,0,0.0,0.0,58,0.00,,,0.00,WUHU216HW,2013-02-14 12:30:00,
2013-02-14 05:34:00,34.7,21.4,30.04,North,0,0.0,0.0,58,0.00,,,0.00,WUHU216HW,2013-02-14 12:34:00,
2013-02-14 05:36:00,34.7,21.4,30.04,North,0,0.0,0.0,58,0.00,,,0.00,WUHU216HW,2013-02-14 12:36:00,
2013-02-14 05:37:00,34.7,21.4,30.04,North,0,0.0,0.0,58,0.00,,,0.00,WUHU216HW,2013-02-14 12:37:00,
2013-02-14 05:39:00,34.7,21.4,30.04,North,0,0.0,0.0,58,0.00,,,0.00,WUHU216HW,2013-02-14 12:39:00,
2013-02-14 05:40:00,34.7,21.4,30.04,North,0,0.0,0.0,58,0.00,,,0.00,WUHU216HW,2013-02-14 12:40:00,
2013-02-14 05:41:00,34.7,21.4,30.04,North,0,0.0,0.0,58,0.00,,,0.00,WUHU216HW,2013-02-14 12:41:00,
2013-02-14 05:42:00,34.7,21.4,30.04,North,0,0.0,0.0,58,0.00,,,0.00,WUHU216HW,2013-02-14 12:42:00,
2013-02-14 05:44:00,34.9,22.1,30.04,North,0,0.0,0.0,59,0.00,,,0.00,WUHU216HW,2013-02-14 12:44:00,
2013-02-14 05:46:00,34.9,22.1,30.04,North,0,0.0,0.0,59,0.00,,,0.00,WUHU216HW,2013-02-14 12:46:00,
2013-02-14 05:47:00,34.9,22.5,30.05,North,0,0.0,0.0,60,0.00,,,0.00,WUHU216HW,2013-02-14 12:47:00,
2013-02-14 05:50:00,34.9,22.5,30.05,North,0,0.0,0.0,60,0.00,,,0.00,WUHU216HW,2013-02-14 12:50:00,
2013-02-14 05:51:00,35.1,22.7,30.05,North,0,0.0,0.0,60,0.00,,,0.00,WUHU216HW,2013-02-14 12:51:00,
2013-02-14 05:53:00,35.1,22.7,30.05,North,0,0.0,0.0,60,0.00,,,0.00,WUHU216HW,2013-02-14 12:53:00,
2013-02-14 05:55:00,35.1,22.2,30.05,North,0,0.0,0.0,59,0.00,,,0.00,WUHU216HW,2013-02-14 12:55:00,
2013-02-14 05:57:00,35.1,22.2,30.05,North,0,0.0,0.0,59,0.00,,,0.00,WUHU216HW,2013-02-14 12:57:00,
2013-02-14 05:58:00,35.1,22.2,30.05,North,0,0.0,0.0,59,0.00,,,0.00,WUHU216HW,2013-02-14 12:58:00,
2013-02-14 06:01:00,34.9,22.1,30.05,North,0,0.0,0.0,59,0.00,,,0.00,WUHU216HW,2013-02-14 13:01:00,
2013-02-14 06:03:00,34.9,21.6,30.05,North,0,0.0,0.0,58,0.00,,,0.00,WUHU216HW,2013-02-14 13:03:00,
2013-02-14 06:04:00,34.9,21.6,30.05,North,0,0.0,0.0,58,0.00,,,0.00,WUHU216HW,2013-02-14 13:04:00,
2013-02-14 06:07:00,34.7,21.4,30.04,North,0,0.0,0.0,58,0.00,,,0.00,WUHU216HW,2013-02-14 13:07:00,
2013-02-14 06:09:00,34.7,21.9,30.05,North,0,0.0,0.0,59,0.00,,,0.00,WUHU216HW,2013-02-14 13:09:00,
2013-02-14 06:10:00,34.7,21.9,30.05,North,0,0.0,0.0,59,0.00,,,0.00,WUHU216HW,2013-02-14 13:10:00,
2013-02-14 06:12:00,34.7,21.9,30.05,North,0,0.0,0.0,59,0.00,,,0.00,WUHU216HW,2013-02-14 13:12:00,
2013-02-14 06:15:00,34.7,21.9,30.05,North,0,0.0,0.0,59,0.00,,,0.00,WUHU216HW,2013-02-14 13:15:00,
2013-02-14 06:17:00,34.6,21.2,30.05,North,0,0.0,0.0,58,0.00,,,0.00,WUHU216HW,2013-02-14 13:17:00,
2013-02-14 06:18:00,34.6,21.2,30.05,North,0,0.0,0.0,58,0.00,,,0.00,WUHU216HW,2013-02-14 13:18:00,
2013-02-14 06:20:00,34.6,21.7,30.05,North,0,0.0,0.0,59,0.00,,,0.00,WUHU216HW,2013-02-14 13:20:00,
2013-02-14 06:21:00,34.6,21.7,30.05,North,0,0.0,0.0,59,0.00,,,0.00,WUHU216HW,2013-02-14 13:21:00,
2013-02-14 06:23:00,34.6,21.7,30.05,North,0,0.0,0.0,59,0.00,,,0.00,WUHU216HW,2013-02-14 13:23:00,
2013-02-14 06:25:00,34.4,21.5,30.05,North,0,0.0,0.0,59,0.00,,,0.00,WUHU216HW,2013-02-14 13:25:00,
2013-02-14 06:26:00,34.4,21.5,30.05,North,0,0.0,0.0,59,0.00,,,0.00,WUHU216HW,2013-02-14 13:26:00,
2013-02-14 06:28:00,34.4,21.5,30.05,North,0,0.0,0.0,59,0.00,,,0.00,WUHU216HW,2013-02-14 13:28:00,
2013-02-14 06:29:00,34.4,21.5,30.05,North,0,0.0,0.0,59,0.00,,,0.00,WUHU216HW,2013-02-14 13:29:00,
2013-02-14 06:31:00,34.2,21.3,30.05,North,0,0.0,0.0,59,0.00,,,0.00,WUHU216HW,2013-02-14 13:31:00,
2013-02-14 06:33:00,34.2,21.3,30.05,North,0,0.0,0.0,59,0.00,,,0.00,WUHU216HW,2013-02-14 13:33:00,
2013-02-14 06:35:00,34.2,21.3,30.05,North,0,0.0,0.0,59,0.00,,,0.00,WUHU216HW,2013-02-14 13:35:00,
2013-02-14 06:36:00,34.2,21.3,30.05,North,0,0.0,0.0,59,0.00,,,0.00,WUHU216HW,2013-02-14 13:36:00,
2013-02-14 06:38:00,34.2,21.3,30.05,North,0,0.0,0.0,59,0.00,,,0.00,WUHU216HW,2013-02-14 13:38:00,
2013-02-14 06:41:00,34.2,21.8,30.05,North,0,0.0,0.0,60,0.00,,,0.00,WUHU216HW,2013-02-14 13:41:00,
2013-02-14 06:43:00,34.2,21.8,30.05,North,0,0.0,0.0,60,0.00,,,0.00,WUHU216HW,2013-02-14 13:43:00,
2013-02-14 06:46:00,34.2,21.8,30.05,North,0,0.0,0.0,60,0.00,,,0.00,WUHU216HW,2013-02-14 13:46:00,
2013-02-14 06:47:00,34.2,21.8,30.05,North,0,0.0,0.0,60,0.00,,,0.00,WUHU216HW,2013-02-14 13:47:00,
2013-02-14 06:48:00,34.2,22.1,30.05,North,0,0.0,0.0,61,0.00,,,0.00,WUHU216HW,2013-02-14 13:48:00,
2013-02-14 06:49:00,34.2,22.1,30.05,North,0,0.0,0.0,61,0.00,,,0.00,WUHU216HW,2013-02-14 13:49:00,
2013-02-14 06:52:00,34.2,21.8,30.05,North,0,0.0,0.0,60,0.00,,,0.00,WUHU216HW,2013-02-14 13:52:00,
2013-02-14 06:53:00,34.2,21.8,30.05,North,0,0.0,0.0,60,0.00,,,0.00,WUHU216HW,2013-02-14 13:53:00,
2013-02-14 06:54:00,34.2,21.8,30.05,North,0,0.0,0.0,60,0.00,,,0.00,WUHU216HW,2013-02-14 13:54:00,
2013-02-14 06:55:00,34.2,21.8,30.05,North,0,0.0,0.0,60,0.00,,,0.00,WUHU216HW,2013-02-14 13:55:00,
2013-02-14 06:58:00,34.0,21.6,30.05,North,0,0.0,0.0,60,0.00,,,0.00,WUHU216HW,2013-02-14 13:58:00,
2013-02-14 06:59:00,34.0,21.6,30.05,North,0,0.0,0.0,60,0.00,,,0.00,WUHU216HW,2013-02-14 13:59:00,
2013-02-14 07:00:00,34.0,21.6,30.06,North,0,0.0,0.0,60,0.00,,,0.00,WUHU216HW,2013-02-14 14:00:00,
2013-02-14 07:03:00,33.8,21.4,30.06,North,0,0.0,0.0,60,0.00,,,0.00,WUHU216HW,2013-02-14 14:03:00,
2013-02-14 07:04:00,33.8,21.4,30.06,North,0,0.0,0.0,60,0.00,,,0.00,WUHU216HW,2013-02-14 14:04:00,
2013-02-14 07:06:00,33.8,21.4,30.06,North,0,0.0,0.0,60,0.00,,,0.00,WUHU216HW,2013-02-14 14:06:00,
2013-02-14 07:09:00,33.8,21.4,30.06,North,0,0.0,0.0,60,0.00,,,0.00,WUHU216HW,2013-02-14 14:09:00,
2013-02-14 07:10:00,33.8,21.4,30.06,North,0,0.0,0.0,60,0.00,,,0.00,WUHU216HW,2013-02-14 14:10:00,
2013-02-14 07:11:00,33.7,21.2,30.06,North,0,0.0,0.0,60,0.00,,,0.00,WUHU216HW,2013-02-14 14:11:00,
2013-02-14 07:12:00,33.5,21.1,30.06,North,0,0.0,0.0,60,0.00,,,0.00,WUHU216HW,2013-02-14 14:12:00,
2013-02-14 07:15:00,33.5,21.1,30.06,North,0,0.0,0.0,60,0.00,,,0.00,WUHU216HW,2013-02-14 14:15:00,
2013-02-14 07:16:00,33.3,21.0,30.06,North,0,0.0,0.0,60,0.00,,,0.00,WUHU216HW,2013-02-14 14:16:00,
2013-02-14 07:18:00,33.1,20.8,30.06,North,0,0.0,0.0,60,0.00,,,0.00,WUHU216HW,2013-02-14 14:18:00,
2013-02-14 07:20:00,33.1,21.2,30.06,North,0,0.0,0.0,61,0.00,,,0.00,WUHU216HW,2013-02-14 14:20:00,
2013-02-14 07:22:00,32.9,21.0,30.06,North,0,0.0,0.0,61,0.00,,,0.00,WUHU216HW,2013-02-14 14:22:00,
2013-02-14 07:23:00,32.9,21.0,30.06,North,0,0.0,0.0,61,0.00,,,0.00,WUHU216HW,2013-02-14 14:23:00,
2013-02-14 07:25:00,32.9,21.0,30.06,North,0,0.0,0.0,61,0.00,,,0.00,WUHU216HW,2013-02-14 14:25:00,
2013-02-14 07:28:00,32.9,21.0,30.06,North,0,0.0,0.0,61,0.00,,,0.00,WUHU216HW,2013-02-14 14:28:00,
2013-02-14 07:30:00,32.9,21.0,30.06,North,0,0.0,0.0,61,0.00,,,0.00,WUHU216HW,2013-02-14 14:30:00,
2013-02-14 07:31:00,32.8,20.8,30.06,North,0,0.0,0.0,61,0.00,,,0.00,WUHU216HW,2013-02-14 14:31:00,
2013-02-14 07:33:00,32.8,20.8,30.06,North,0,0.0,0.0,61,0.00,,,0.00,WUHU216HW,2013-02-14 14:33:00,
2013-02-14 07:34:00,32.8,20.8,30.06,North,0,0.0,0.0,61,0.00,,,0.00,WUHU216HW,2013-02-14 14:34:00,
2013-02-14 07:35:00,32.8,21.2,30.06,North,0,0.0,0.0,62,0.00,,,0.00,WUHU216HW,2013-02-14 14:35:00,
2013-02-14 07:36:00,32.8,21.2,30.06,North,0,0.0,0.0,62,0.00,,,0.00,WUHU216HW,2013-02-14 14:36:00,
2013-02-14 07:38:00,32.8,21.5,30.06,North,0,0.0,0.0,63,0.00,,,0.00,WUHU216HW,2013-02-14 14:38:00,
2013-02-14 07:40:00,33.1,22.2,30.06,North,0,0.0,0.0,64,0.00,,,0.00,WUHU216HW,2013-02-14 14:40:00,
2013-02-14 07:41:00,33.3,22.8,30.06,North,0,0.0,0.0,65,0.00,,,0.00,WUHU216HW,2013-02-14 14:41:00,
2013-02-14 07:42:00,33.3,22.8,30.06,North,0,0.0,0.0,65,0.00,,,0.00,WUHU216HW,2013-02-14 14:42:00,
2013-02-14 07:44:00,33.7,23.0,30.06,North,0,0.0,0.0,65,0.00,,,0.00,WUHU216HW,2013-02-14 14:44:00,
2013-02-14 07:45:00,33.7,22.3,30.06,North,0,0.0,0.0,63,0.00,,,0.00,WUHU216HW,2013-02-14 14:45:00,
2013-02-14 07:46:00,33.8,22.5,30.06,North,0,0.0,0.0,63,0.00,,,0.00,WUHU216HW,2013-02-14 14:46:00,
2013-02-14 07:47:00,33.8,22.5,30.06,North,0,0.0,0.0,63,0.00,,,0.00,WUHU216HW,2013-02-14 14:47:00,
2013-02-14 07:49:00,33.8,22.1,30.06,North,0,0.0,0.0,62,0.00,,,0.00,WUHU216HW,2013-02-14 14:49:00,
2013-02-14 07:51:00,34.0,22.3,30.06,North,0,0.0,0.0,62,0.00,,,0.00,WUHU216HW,2013-02-14 14:51:00,
2013-02-14 07:52:00,34.2,22.5,30.06,North,0,0.0,0.0,62,0.00,,,0.00,WUHU216HW,2013-02-14 14:52:00,
2013-02-14 07:55:00,34.2,22.5,30.06,North,0,0.0,0.0,62,0.00,,,0.00,WUHU216HW,2013-02-14 14:55:00,
2013-02-14 07:56:00,34.6,22.9,30.06,North,0,0.0,0.0,62,0.00,,,0.00,WUHU216HW,2013-02-14 14:56:00,
2013-02-14 07:57:00,34.6,22.9,30.06,North,0,0.0,0.0,62,0.00,,,0.00,WUHU216HW,2013-02-14 14:57:00,
2013-02-14 07:58:00,34.6,22.9,30.06,North,0,0.0,0.0,62,0.00,,,0.00,WUHU216HW,2013-02-14 14:58:00,
2013-02-14 08:00:00,34.9,23.2,30.06,North,0,0.0,0.0,62,0.00,,,0.00,WUHU216HW,2013-02-14 15:00:00,
2013-02-14 08:01:00,34.9,23.2,30.06,North,0,0.0,0.0,62,0.00,,,0.00,WUHU216HW,2013-02-14 15:01:00,
2013-02-14 08:03:00,35.3,23.6,30.06,North,0,0.0,0.0,62,0.00,,,0.00,WUHU216HW,2013-02-14 15:03:00,
2013-02-14 08:05:00,35.6,23.9,30.06,North,0,0.0,0.0,62,0.00,,,0.00,WUHU216HW,2013-02-14 15:05:00,
2013-02-14 08:06:00,35.6,23.9,30.06,North,0,0.0,0.0,62,0.00,,,0.00,WUHU216HW,2013-02-14 15:06:00,
2013-02-14 08:08:00,36.0,24.0,30.06,North,0,0.0,0.0,61,0.00,,,0.00,WUHU216HW,2013-02-14 15:08:00,
2013-02-14 08:10:00,36.4,24.2,30.06,North,0,0.0,0.0,61,0.00,,,0.00,WUHU216HW,2013-02-14 15:10:00,
2013-02-14 08:12:00,36.4,24.2,30.06,North,0,0.0,0.0,61,0.00,,,0.00,WUHU216HW,2013-02-14 15:12:00,
2013-02-14 08:13:00,36.7,24.2,30.07,North,0,0.0,0.0,60,0.00,,,0.00,WUHU216HW,2013-02-14 15:13:00,
2013-02-14 08:14:00,36.7,24.2,30.07,North,0,0.0,0.0,60,0.00,,,0.00,WUHU216HW,2013-02-14 15:14:00,
2013-02-14 08:16:00,36.9,24.4,30.07,North,0,0.0,0.0,60,0.00,,,0.00,WUHU216HW,2013-02-14 15:16:00,
2013-02-14 08:17:00,37.1,24.5,30.07,North,0,0.0,0.0,60,0.00,,,0.00,WUHU216HW,2013-02-14 15:17:00,
2013-02-14 08:18:00,37.1,24.5,30.07,North,0,0.0,0.0,60,0.00,,,0.00,WUHU216HW,2013-02-14 15:18:00,
2013-02-14 08:19:00,37.1,24.5,30.07,North,0,0.0,0.0,60,0.00,,,0.00,WUHU216HW,2013-02-14 15:19:00,
2013-02-14 08:22:00,37.1,24.5,30.07,North,0,0.0,0.0,60,0.00,,,0.00,WUHU216HW,2013-02-14 15:22:00,
2013-02-14 08:23:00,37.1,24.5,30.07,North,0,0.0,0.0,60,0.00,,,0.00,WUHU216HW,2013-02-14 15:23:00,
2013-02-14 08:24:00,37.3,24.7,30.07,North,0,0.0,0.0,60,0.00,,,0.00,WUHU216HW,2013-02-14 15:24:00,
2013-02-14 08:28:00,37.4,24.8,30.07,North,0,0.0,0.0,60,0.00,,,0.00,WUHU216HW,2013-02-14 15:28:00,
2013-02-14 08:29:00,37.6,25.0,30.07,North,0,0.0,0.0,60,0.00,,,0.00,WUHU216HW,2013-02-14 15:29:00,
2013-02-14 08:30:00,37.8,25.2,30.07,North,0,0.0,0.0,60,0.00,,,0.00,WUHU216HW,2013-02-14 15:30:00,
2013-02-14 08:34:00,38.0,25.3,30.07,North,0,0.0,0.0,60,0.00,,,0.00,WUHU216HW,2013-02-14 15:34:00,
2013-02-14 08:35:00,38.2,25.5,30.07,North,0,0.0,0.0,60,0.00,,,0.00,WUHU216HW,2013-02-14 15:35:00,
2013-02-14 08:40:00,38.5,25.4,30.07,North,0,0.0,0.0,59,0.00,,,0.00,WUHU216HW,2013-02-14 15:40:00,
2013-02-14 08:45:00,38.9,25.3,30.07,North,0,0.0,0.0,58,0.00,,,0.00,WUHU216HW,2013-02-14 15:45:00,
2013-02-14 08:46:00,39.1,25.5,30.07,North,0,0.0,0.0,58,0.00,,,0.00,WUHU216HW,2013-02-14 15:46:00,
2013-02-14 08:50:00,39.2,25.2,30.07,North,0,0.0,0.0,57,0.00,,,0.00,WUHU216HW,2013-02-14 15:50:00,
2013-02-14 08:51:00,39.2,25.2,30.08,North,0,0.0,0.0,57,0.00,,,0.00,WUHU216HW,2013-02-14 15:51:00,
2013-02-14 08:52:00,39.2,25.2,30.08,North,0,0.0,0.0,57,0.00,,,0.00,WUHU216HW,2013-02-14 15:52:00,
2013-02-14 08:55:00,39.4,25.4,30.08,North,0,0.0,0.0,57,0.00,,,0.00,WUHU216HW,2013-02-14 15:55:00,
2013-02-14 08:56:00,39.4,25.4,30.08,North,0,0.0,0.0,57,0.00,,,0.00,WUHU216HW,2013-02-14 15:56:00,
2013-02-14 08:57:00,39.4,25.4,30.08,North,0,0.0,0.0,57,0.00,,,0.00,WUHU216HW,2013-02-14 15:57:00,
2013-02-14 09:00:00,39.8,25.7,30.08,North,0,0.0,0.0,57,0.00,,,0.00,WUHU216HW,2013-02-14 16:00:00,
2013-02-14 09:02:00,40.0,25.4,30.08,North,0,0.0,0.0,56,0.00,,,0.00,WUHU216HW,2013-02-14 16:02:00,
2013-02-14 09:03:00,40.0,25.4,30.07,North,0,0.0,0.0,56,0.00,,,0.00,WUHU216HW,2013-02-14 16:03:00,
2013-02-14 09:05:00,40.1,25.6,30.08,North,0,0.0,0.0,56,0.00,,,0.00,WUHU216HW,2013-02-14 16:05:00,
2013-02-14 09:07:00,40.1,25.6,30.08,North,0,0.0,0.0,56,0.00,,,0.00,WUHU216HW,2013-02-14 16:07:00,
2013-02-14 09:09:00,40.5,25.9,30.08,North,0,0.0,0.0,56,0.00,,,0.00,WUHU216HW,2013-02-14 16:09:00,
2013-02-14 09:10:00,40.7,26.1,30.08,North,0,0.0,0.0,56,0.00,,,0.00,WUHU216HW,2013-02-14 16:10:00,
2013-02-14 09:13:00,40.9,25.8,30.08,North,0,0.0,0.0,55,0.00,,,0.00,WUHU216HW,2013-02-14 16:13:00,
2013-02-14 09:14:00,41.0,26.0,30.08,North,0,0.0,0.0,55,0.00,,,0.00,WUHU216HW,2013-02-14 16:14:00,
2013-02-14 09:16:00,41.2,26.2,30.08,North,0,0.0,0.0,55,0.00,,,0.00,WUHU216HW,2013-02-14 16:16:00,
2013-02-14 09:18:00,41.4,26.4,30.08,North,0,0.0,0.0,55,0.00,,,0.00,WUHU216HW,2013-02-14 16:18:00,
2013-02-14 09:19:00,41.4,26.4,30.08,North,0,0.0,0.0,55,0.00,,,0.00,WUHU216HW,2013-02-14 16:19:00,
2013-02-14 09:22:00,41.9,26.5,30.08,North,0,0.0,0.0,54,0.00,,,0.00,WUHU216HW,2013-02-14 16:22:00,
2013-02-14 09:24:00,42.1,26.7,30.08,North,0,0.0,0.0,54,0.00,,,0.00,WUHU216HW,2013-02-14 16:24:00,
2013-02-14 09:25:00,42.1,26.7,30.08,North,0,0.0,0.0,54,0.00,,,0.00,WUHU216HW,2013-02-14 16:25:00,
2013-02-14 09:27:00,42.7,27.1,30.07,North,0,0.0,0.0,54,0.00,,,0.00,WUHU216HW,2013-02-14 16:27:00,
2013-02-14 09:28:00,42.7,27.1,30.07,North,0,0.0,0.0,54,0.00,,,0.00,WUHU216HW,2013-02-14 16:28:00,
2013-02-14 09:29:00,42.8,26.8,30.07,North,0,0.0,0.0,53,0.00,,,0.00,WUHU216HW,2013-02-14 16:29:00,
2013-02-14 09:31:00,43.0,27.0,30.08,North,0,0.0,0.0,53,0.00,,,0.00,WUHU216HW,2013-02-14 16:31:00,
2013-02-14 09:33:00,43.2,27.2,30.08,North,0,0.0,0.0,53,0.00,,,0.00,WUHU216HW,2013-02-14 16:33:00,
2013-02-14 09:35:00,43.6,27.1,30.08,North,0,0.0,0.0,52,0.00,,,0.00,WUHU216HW,2013-02-14 16:35:00,
2013-02-14 09:36:00,43.6,27.1,30.08,North,0,0.0,0.0,52,0.00,,,0.00,WUHU216HW,2013-02-14 16:36:00,
2013-02-14 09:38:00,43.6,27.1,30.08,North,0,0.0,0.0,52,0.00,,,0.00,WUHU216HW,2013-02-14 16:38:00,
2013-02-14 09:41:00,43.9,27.5,30.08,North,0,0.0,0.0,52,0.00,,,0.00,WUHU216HW,2013-02-14 16:41:00,
2013-02-14 09:42:00,43.9,27.5,30.08,North,0,0.0,0.0,52,0.00,,,0.00,WUHU216HW,2013-02-14 16:42:00,
2013-02-14 09:43:00,44.3,27.7,30.08,North,0,0.0,0.0,52,0.00,,,0.00,WUHU216HW,2013-02-14 16:43:00,
2013-02-14 09:44:00,44.3,27.7,30.08,North,0,0.0,0.0,52,0.00,,,0.00,WUHU216HW,2013-02-14 16:44:00,
2013-02-14 09:47:00,44.6,27.6,30.07,North,0,0.0,0.0,51,0.00,,,0.00,WUHU216HW,2013-02-14 16:47:00,
2013-02-14 09:49:00,45.0,27.6,30.07,North,0,0.0,0.0,50,0.00,,,0.00,WUHU216HW,2013-02-14 16:49:00,
2013-02-14 09:52:00,45.2,26.6,30.07,North,0,0.0,0.0,48,0.00,,,0.00,WUHU216HW,2013-02-14 16:52:00,
2013-02-14 09:54:00,45.4,26.7,30.07,North,0,0.0,0.0,48,0.00,,,0.00,WUHU216HW,2013-02-14 16:54:00,
2013-02-14 09:55:00,45.4,26.7,30.07,North,0,0.0,0.0,48,0.00,,,0.00,WUHU216HW,2013-02-14 16:55:00,
2013-02-14 09:57:00,45.7,27.1,30.07,North,0,0.0,0.0,48,0.00,,,0.00,WUHU216HW,2013-02-14 16:57:00,
2013-02-14 09:58:00,45.7,27.1,30.07,North,0,0.0,0.0,48,0.00,,,0.00,WUHU216HW,2013-02-14 16:58:00,
2013-02-14 10:00:00,45.9,27.3,30.07,North,0,0.0,0.0,48,0.00,,,0.00,WUHU216HW,2013-02-14 17:00:00,
2013-02-14 10:01:00,46.1,27.4,30.06,North,0,0.0,0.0,48,0.00,,,0.00,WUHU216HW,2013-02-14 17:01:00,
2013-02-14 10:02:00,46.1,27.4,30.06,North,0,0.0,0.0,48,0.00,,,0.00,WUHU216HW,2013-02-14 17:02:00,
2013-02-14 10:04:00,46.4,27.7,30.06,North,0,0.0,0.0,48,0.00,,,0.00,WUHU216HW,2013-02-14 17:04:00,
2013-02-14 10:06:00,46.4,27.7,30.06,North,0,0.0,0.0,48,0.00,,,0.00,WUHU216HW,2013-02-14 17:06:00,
2013-02-14 10:09:00,46.8,27.0,30.07,North,0,0.0,0.0,46,0.00,,,0.00,WUHU216HW,2013-02-14 17:09:00,
2013-02-14 10:10:00,46.8,27.6,30.06,North,0,0.0,0.0,47,0.00,,,0.00,WUHU216HW,2013-02-14 17:10:00,
2013-02-14 10:11:00,46.8,27.0,30.07,North,0,0.0,0.0,46,0.00,,,0.00,WUHU216HW,2013-02-14 17:11:00,
2013-02-14 10:12:00,47.0,27.1,30.06,North,0,0.0,0.0,46,0.00,,,0.00,WUHU216HW,2013-02-14 17:12:00,
2013-02-14 10:15:00,47.2,27.3,30.06,North,0,0.0,0.0,46,0.00,,,0.00,WUHU216HW,2013-02-14 17:15:00,
2013-02-14 10:17:00,47.3,26.9,30.07,North,0,0.0,0.0,45,0.00,,,0.00,WUHU216HW,2013-02-14 17:17:00,
2013-02-14 10:21:00,47.5,26.0,30.07,North,0,0.0,0.0,43,0.00,,,0.00,WUHU216HW,2013-02-14 17:21:00,
2013-02-14 10:23:00,47.5,26.0,30.06,North,0,0.0,0.0,43,0.00,,,0.00,WUHU216HW,2013-02-14 17:23:00,
2013-02-14 10:24:00,47.5,26.0,30.06,North,0,0.0,0.0,43,0.00,,,0.00,WUHU216HW,2013-02-14 17:24:00,
2013-02-14 10:26:00,47.7,26.2,30.06,North,0,0.0,0.0,43,0.00,,,0.00,WUHU216HW,2013-02-14 17:26:00,
2013-02-14 10:28:00,47.7,26.2,30.07,North,0,0.0,0.0,43,0.00,,,0.00,WUHU216HW,2013-02-14 17:28:00,
2013-02-14 10:29:00,47.7,26.2,30.07,North,0,0.0,0.0,43,0.00,,,0.00,WUHU216HW,2013-02-14 17:29:00,
2013-02-14 10:33:00,47.9,26.3,30.06,North,0,0.0,0.0,43,0.00,,,0.00,WUHU216HW,2013-02-14 17:33:00,
2013-02-14 10:34:00,48.1,25.9,30.06,North,0,0.0,0.0,42,0.00,,,0.00,WUHU216HW,2013-02-14 17:34:00,
2013-02-14 10:38:00,48.2,26.6,30.06,North,0,0.0,0.0,43,0.00,,,0.00,WUHU216HW,2013-02-14 17:38:00,
2013-02-14 10:39:00,48.4,26.8,30.06,North,0,0.0,0.0,43,0.00,,,0.00,WUHU216HW,2013-02-14 17:39:00,
2013-02-14 10:40:00,48.6,26.5,30.06,North,0,0.0,0.0,42,0.00,,,0.00,WUHU216HW,2013-02-14 17:40:00,
2013-02-14 10:43:00,48.6,26.5,30.07,North,0,0.0,0.0,42,0.00,,,0.00,WUHU216HW,2013-02-14 17:43:00,
2013-02-14 10:44:00,48.6,26.5,30.07,North,0,0.0,0.0,42,0.00,,,0.00,WUHU216HW,2013-02-14 17:44:00,
2013-02-14 10:45:00,49.0,26.7,30.07,North,0,0.0,0.0,42,0.00,,,0.00,WUHU216HW,2013-02-14 17:45:00,
2013-02-14 10:49:00,49.0,26.2,30.07,North,0,0.0,0.0,41,0.00,,,0.00,WUHU216HW,2013-02-14 17:49:00,
2013-02-14 10:50:00,49.1,26.4,30.07,North,0,0.0,0.0,41,0.00,,,0.00,WUHU216HW,2013-02-14 17:50:00,
2013-02-14 10:51:00,49.1,26.4,30.07,North,0,0.0,0.0,41,0.00,,,0.00,WUHU216HW,2013-02-14 17:51:00,
2013-02-14 10:54:00,49.3,26.0,30.07,North,0,0.0,0.0,40,0.00,,,0.00,WUHU216HW,2013-02-14 17:54:00,
2013-02-14 10:55:00,49.3,26.0,30.07,North,0,0.0,0.0,40,0.00,,,0.00,WUHU216HW,2013-02-14 17:55:00,
2013-02-14 10:56:00,49.3,26.0,30.07,North,0,0.0,0.0,40,0.00,,,0.00,WUHU216HW,2013-02-14 17:56:00,
2013-02-14 11:00:00,49.7,26.3,30.06,North,0,0.0,0.0,40,0.00,,,0.00,WUHU216HW,2013-02-14 18:00:00,
2013-02-14 11:01:00,49.7,26.3,30.07,North,0,0.0,0.0,40,0.00,,,0.00,WUHU216HW,2013-02-14 18:01:00,
2013-02-14 11:02:00,49.9,25.8,30.07,North,0,0.0,0.0,39,0.00,,,0.00,WUHU216HW,2013-02-14 18:02:00,
2013-02-14 11:06:00,50.0,27.2,30.06,North,0,0.0,0.0,41,0.00,,,0.00,WUHU216HW,2013-02-14 18:06:00,
2013-02-14 11:07:00,50.2,27.4,30.06,North,0,0.0,0.0,41,0.00,,,0.00,WUHU216HW,2013-02-14 18:07:00,
2013-02-14 11:11:00,50.8,27.8,30.06,North,0,0.0,0.0,41,0.00,,,0.00,WUHU216HW,2013-02-14 18:11:00,
2013-02-14 11:12:00,50.8,27.8,30.06,North,0,0.0,0.0,41,0.00,,,0.00,WUHU216HW,2013-02-14 18:12:00,
2013-02-14 11:13:00,50.9,27.5,30.06,North,0,0.0,0.0,40,0.00,,,0.00,WUHU216HW,2013-02-14 18:13:00,
2013-02-14 11:17:00,51.5,28.5,30.06,North,0,0.0,0.0,41,0.00,,,0.00,WUHU216HW,2013-02-14 18:17:00,
2013-02-14 11:18:00,51.5,28.5,30.06,North,0,0.0,0.0,41,0.00,,,0.00,WUHU216HW,2013-02-14 18:18:00,
2013-02-14 11:22:00,52.0,27.7,30.06,North,0,0.0,0.0,39,0.00,,,0.00,WUHU216HW,2013-02-14 18:22:00,
2013-02-14 11:23:00,52.0,27.7,30.06,North,0,0.0,0.0,39,0.00,,,0.00,WUHU216HW,2013-02-14 18:23:00,
2013-02-14 11:24:00,52.2,27.2,30.06,North,0,0.0,0.0,38,0.00,,,0.00,WUHU216HW,2013-02-14 18:24:00,
2013-02-14 11:29:00,52.4,28.1,30.06,North,0,0.0,0.0,39,0.00,,,0.00,WUHU216HW,2013-02-14 18:29:00,
2013-02-14 11:30:00,52.4,28.1,30.06,North,0,0.0,0.0,39,0.00,,,0.00,WUHU216HW,2013-02-14 18:30:00,
2013-02-14 11:32:00,52.6,28.3,30.05,North,0,0.0,0.0,39,0.00,,,0.00,WUHU216HW,2013-02-14 18:32:00,
2013-02-14 11:34:00,52.9,28.5,30.05,North,0,0.0,0.0,39,0.00,,,0.00,WUHU216HW,2013-02-14 18:34:00,
2013-02-14 11:35:00,52.9,28.5,30.05,North,0,0.0,0.0,39,0.00,,,0.00,WUHU216HW,2013-02-14 18:35:00,
2013-02-14 11:38:00,53.3,28.2,30.05,North,0,0.0,0.0,38,0.00,,,0.00,WUHU216HW,2013-02-14 18:38:00,
2013-02-14 11:40:00,53.5,28.4,30.05,North,0,0.0,0.0,38,0.00,,,0.00,WUHU216HW,2013-02-14 18:40:00,
2013-02-14 11:41:00,53.5,28.4,30.05,North,0,0.0,0.0,38,0.00,,,0.00,WUHU216HW,2013-02-14 18:41:00,
2013-02-14 11:43:00,53.6,28.5,30.05,North,0,0.0,0.0,38,0.00,,,0.00,WUHU216HW,2013-02-14 18:43:00,
2013-02-14 11:45:00,53.6,27.8,30.05,North,0,0.0,0.0,37,0.00,,,0.00,WUHU216HW,2013-02-14 18:45:00,
2013-02-14 11:46:00,53.6,27.8,30.05,North,0,0.0,0.0,37,0.00,,,0.00,WUHU216HW,2013-02-14 18:46:00,
2013-02-14 11:47:00,53.8,28.7,30.05,North,0,0.0,0.0,38,0.00,,,0.00,WUHU216HW,2013-02-14 18:47:00,
2013-02-14 11:50:00,54.0,28.8,30.05,North,0,0.0,0.0,38,0.00,,,0.00,WUHU216HW,2013-02-14 18:50:00,
2013-02-14 11:51:00,54.2,29.0,30.04,North,0,0.0,0.0,38,0.00,,,0.00,WUHU216HW,2013-02-14 18:51:00,
2013-02-14 11:53:00,54.4,29.2,30.04,North,0,0.0,0.0,38,0.00,,,0.00,WUHU216HW,2013-02-14 18:53:00,
2013-02-14 11:56:00,54.7,29.4,30.04,North,0,0.0,0.0,38,0.00,,,0.00,WUHU216HW,2013-02-14 18:56:00,
2013-02-14 11:58:00,55.1,29.1,30.05,North,0,0.0,0.0,37,0.00,,,0.00,WUHU216HW,2013-02-14 18:58:00,
2013-02-14 12:01:00,55.1,29.1,30.04,North,0,0.0,0.0,37,0.00,,,0.00,WUHU216HW,2013-02-14 19:01:00,
2013-02-14 12:03:00,55.1,29.1,30.04,North,0,0.0,0.0,37,0.00,,,0.00,WUHU216HW,2013-02-14 19:03:00,
2013-02-14 12:04:00,55.1,29.1,30.04,North,0,0.0,0.0,37,0.00,,,0.00,WUHU216HW,2013-02-14 19:04:00,
2013-02-14 12:06:00,55.1,29.1,30.04,North,0,0.0,0.0,37,0.00,,,0.00,WUHU216HW,2013-02-14 19:06:00,
2013-02-14 12:08:00,55.1,29.1,30.05,North,0,0.0,0.0,37,0.00,,,0.00,WUHU216HW,2013-02-14 19:08:00,
2013-02-14 12:10:00,55.1,29.1,30.04,North,0,0.0,0.0,37,0.00,,,0.00,WUHU216HW,2013-02-14 19:10:00,
2013-02-14 12:14:00,55.1,29.1,30.04,North,0,0.0,0.0,37,0.00,,,0.00,WUHU216HW,2013-02-14 19:14:00,
2013-02-14 12:16:00,57.2,28.9,30.04,North,0,0.0,0.0,34,0.00,,,0.00,WUHU216HW,2013-02-14 19:16:00,
2013-02-14 12:19:00,57.4,29.1,30.04,North,0,0.0,0.0,34,0.00,,,0.00,WUHU216HW,2013-02-14 19:19:00,
2013-02-14 12:20:00,57.8,28.7,30.04,North,0,0.0,0.0,33,0.00,,,0.00,WUHU216HW,2013-02-14 19:20:00,
2013-02-14 12:22:00,58.0,28.9,30.04,North,0,0.0,0.0,33,0.00,,,0.00,WUHU216HW,2013-02-14 19:22:00,
2013-02-14 12:25:00,58.3,29.2,30.04,North,0,0.0,0.0,33,0.00,,,0.00,WUHU216HW,2013-02-14 19:25:00,
2013-02-14 12:26:00,58.3,28.4,30.04,North,0,0.0,0.0,32,0.00,,,0.00,WUHU216HW,2013-02-14 19:26:00,
2013-02-14 12:27:00,58.7,28.1,30.04,North,0,0.0,0.0,31,0.00,,,0.00,WUHU216HW,2013-02-14 19:27:00,
2013-02-14 12:30:00,58.7,26.5,30.04,North,0,0.0,0.0,29,0.00,,,0.00,WUHU216HW,2013-02-14 19:30:00,
2013-02-14 12:31:00,58.7,26.5,30.04,North,0,0.0,0.0,29,0.00,,,0.00,WUHU216HW,2013-02-14 19:31:00,
2013-02-14 12:33:00,58.7,26.5,30.03,North,0,0.0,0.0,29,0.00,,,0.00,WUHU216HW,2013-02-14 19:33:00,
2013-02-14 12:35:00,58.9,25.7,30.03,North,0,0.0,0.0,28,0.00,,,0.00,WUHU216HW,2013-02-14 19:35:00,
2013-02-14 12:36:00,58.7,22.6,30.03,North,0,0.0,0.0,25,0.00,,,0.00,WUHU216HW,2013-02-14 19:36:00,
2013-02-14 12:37:00,58.7,22.6,30.03,North,0,0.0,0.0,25,0.00,,,0.00,WUHU216HW,2013-02-14 19:37:00,
2013-02-14 12:38:00,58.7,24.5,30.03,North,0,0.0,0.0,27,0.00,,,0.00,WUHU216HW,2013-02-14 19:38:00,
2013-02-14 12:41:00,58.3,24.2,30.03,North,0,0.0,0.0,27,0.00,,,0.00,WUHU216HW,2013-02-14 19:41:00,
2013-02-14 12:42:00,58.3,24.2,30.03,North,0,0.0,0.0,27,0.00,,,0.00,WUHU216HW,2013-02-14 19:42:00,
2013-02-14 12:43:00,58.3,25.1,30.03,North,0,0.0,0.0,28,0.00,,,0.00,WUHU216HW,2013-02-14 19:43:00,
2013-02-14 12:46:00,58.3,26.1,30.03,North,0,0.0,0.0,29,0.00,,,0.00,WUHU216HW,2013-02-14 19:46:00,
2013-02-14 12:48:00,58.5,26.3,30.03,North,0,0.0,0.0,29,0.00,,,0.00,WUHU216HW,2013-02-14 19:48:00,
2013-02-14 12:51:00,58.9,26.6,30.03,North,0,0.0,0.0,29,0.00,,,0.00,WUHU216HW,2013-02-14 19:51:00,
2013-02-14 12:52:00,58.9,26.6,30.03,North,0,0.0,0.0,29,0.00,,,0.00,WUHU216HW,2013-02-14 19:52:00,
2013-02-14 12:53:00,59.0,26.7,30.03,North,0,0.0,0.0,29,0.00,,,0.00,WUHU216HW,2013-02-14 19:53:00,
2013-02-14 12:54:00,59.0,26.7,30.03,North,0,0.0,0.0,29,0.00,,,0.00,WUHU216HW,2013-02-14 19:54:00,
2013-02-14 12:57:00,59.0,26.7,30.03,North,0,0.0,0.0,29,0.00,,,0.00,WUHU216HW,2013-02-14 19:57:00,
2013-02-14 12:59:00,59.2,26.9,30.03,North,0,0.0,0.0,29,0.00,,,0.00,WUHU216HW,2013-02-14 19:59:00,
2013-02-14 13:00:00,59.2,26.9,30.02,North,0,0.0,0.0,29,0.00,,,0.00,WUHU216HW,2013-02-14 20:00:00,
2013-02-14 13:02:00,59.2,26.9,30.02,North,0,0.0,0.0,29,0.00,,,0.00,WUHU216HW,2013-02-14 20:02:00,
2013-02-14 13:03:00,59.4,27.0,30.02,North,0,0.0,0.0,29,0.00,,,0.00,WUHU216HW,2013-02-14 20:03:00,
2013-02-14 13:06:00,59.4,27.0,30.02,North,0,0.0,0.0,29,0.00,,,0.00,WUHU216HW,2013-02-14 20:06:00,
2013-02-14 13:07:00,59.4,27.0,30.02,North,0,0.0,0.0,29,0.00,,,0.00,WUHU216HW,2013-02-14 20:07:00,
2013-02-14 13:09:00,59.6,27.2,30.02,North,0,0.0,0.0,29,0.00,,,0.00,WUHU216HW,2013-02-14 20:09:00,
2013-02-14 13:11:00,59.8,27.4,30.02,North,0,0.0,0.0,29,0.00,,,0.00,WUHU216HW,2013-02-14 20:11:00,
2013-02-14 13:13:00,59.9,27.5,30.02,North,0,0.0,0.0,29,0.00,,,0.00,WUHU216HW,2013-02-14 20:13:00,
2013-02-14 13:15:00,60.1,27.6,30.02,North,0,0.0,0.0,29,0.00,,,0.00,WUHU216HW,2013-02-14 20:15:00,
2013-02-14 13:16:00,60.1,25.8,30.02,North,0,0.0,0.0,27,0.00,,,0.00,WUHU216HW,2013-02-14 20:16:00,
2013-02-14 13:18:00,60.3,26.8,30.02,North,0,0.0,0.0,28,0.00,,,0.00,WUHU216HW,2013-02-14 20:18:00,
2013-02-14 13:20:00,60.1,23.8,30.02,North,0,0.0,0.0,25,0.00,,,0.00,WUHU216HW,2013-02-14 20:20:00,
2013-02-14 13:21:00,60.1,23.8,30.02,North,0,0.0,0.0,25,0.00,,,0.00,WUHU216HW,2013-02-14 20:21:00,
2013-02-14 13:22:00,60.1,23.8,30.02,North,0,0.0,0.0,25,0.00,,,0.00,WUHU216HW,2013-02-14 20:22:00,
2013-02-14 13:23:00,59.8,23.5,30.02,North,0,0.0,0.0,25,0.00,,,0.00,WUHU216HW,2013-02-14 20:23:00,
2013-02-14 13:26:00,59.8,23.5,30.02,North,0,0.0,0.0,25,0.00,,,0.00,WUHU216HW,2013-02-14 20:26:00,
2013-02-14 13:27:00,59.8,23.5,30.02,North,0,0.0,0.0,25,0.00,,,0.00,WUHU216HW,2013-02-14 20:27:00,
2013-02-14 13:29:00,59.8,24.5,30.02,North,0,0.0,0.0,26,0.00,,,0.00,WUHU216HW,2013-02-14 20:29:00,
2013-02-14 13:32:00,59.8,25.4,30.02,North,0,0.0,0.0,27,0.00,,,0.00,WUHU216HW,2013-02-14 20:32:00,
2013-02-14 13:33:00,59.8,25.4,30.02,North,0,0.0,0.0,27,0.00,,,0.00,WUHU216HW,2013-02-14 20:33:00,
2013-02-14 13:35:00,59.8,22.5,30.02,North,0,0.0,0.0,24,0.00,,,0.00,WUHU216HW,2013-02-14 20:35:00,
2013-02-14 13:37:00,59.8,25.4,30.02,North,0,0.0,0.0,27,0.00,,,0.00,WUHU216HW,2013-02-14 20:37:00,
2013-02-14 13:38:00,59.8,25.4,30.02,North,0,0.0,0.0,27,0.00,,,0.00,WUHU216HW,2013-02-14 20:38:00,
2013-02-14 13:40:00,59.8,25.4,30.02,North,0,0.0,0.0,27,0.00,,,0.00,WUHU216HW,2013-02-14 20:40:00,
2013-02-14 13:42:00,59.9,25.6,30.02,North,0,0.0,0.0,27,0.00,,,0.00,WUHU216HW,2013-02-14 20:42:00,
2013-02-14 13:44:00,60.1,25.8,30.02,North,0,0.0,0.0,27,0.00,,,0.00,WUHU216HW,2013-02-14 20:44:00,
2013-02-14 13:46:00,60.1,26.6,30.02,North,0,0.0,0.0,28,0.00,,,0.00,WUHU216HW,2013-02-14 20:46:00,
2013-02-14 13:48:00,60.3,25.8,30.02,North,0,0.0,0.0,27,0.00,,,0.00,WUHU216HW,2013-02-14 20:48:00,
2013-02-14 13:50:00,60.5,24.1,30.02,North,0,0.0,0.0,25,0.00,,,0.00,WUHU216HW,2013-02-14 20:50:00,
2013-02-14 13:52:00,60.5,24.1,30.03,North,0,0.0,0.0,25,0.00,,,0.00,WUHU216HW,2013-02-14 20:52:00,
2013-02-14 13:53:00,60.5,24.1,30.02,North,0,0.0,0.0,25,0.00,,,0.00,WUHU216HW,2013-02-14 20:53:00,
2013-02-14 13:55:00,60.5,24.1,30.02,North,0,0.0,0.0,25,0.00,,,0.00,WUHU216HW,2013-02-14 20:55:00,
2013-02-14 13:58:00,60.5,23.1,30.02,North,0,0.0,0.0,24,0.00,,,0.00,WUHU216HW,2013-02-14 20:58:00,
2013-02-14 14:00:00,60.5,24.1,30.02,North,0,0.0,0.0,25,0.00,,,0.00,WUHU216HW,2013-02-14 21:00:00,
2013-02-14 14:01:00,60.5,23.1,30.02,North,0,0.0,0.0,24,0.00,,,0.00,WUHU216HW,2013-02-14 21:01:00,
2013-02-14 14:02:00,60.5,23.1,30.02,North,0,0.0,0.0,24,0.00,,,0.00,WUHU216HW,2013-02-14 21:02:00,
2013-02-14 14:04:00,60.3,23.0,30.02,North,0,0.0,0.0,24,0.00,,,0.00,WUHU216HW,2013-02-14 21:04:00,
2013-02-14 14:05:00,60.3,24.0,30.02,North,0,0.0,0.0,25,0.00,,,0.00,WUHU216HW,2013-02-14 21:05:00,
2013-02-14 14:07:00,60.3,24.0,30.02,North,0,0.0,0.0,25,0.00,,,0.00,WUHU216HW,2013-02-14 21:07:00,
2013-02-14 14:09:00,60.3,24.0,30.01,North,0,0.0,0.0,25,0.00,,,0.00,WUHU216HW,2013-02-14 21:09:00,
2013-02-14 14:11:00,60.3,24.0,30.01,North,0,0.0,0.0,25,0.00,,,0.00,WUHU216HW,2013-02-14 21:11:00,
2013-02-14 14:12:00,60.5,25.0,30.01,North,0,0.0,0.0,26,0.00,,,0.00,WUHU216HW,2013-02-14 21:12:00,
2013-02-14 14:13:00,60.5,25.0,30.01,North,0,0.0,0.0,26,0.00,,,0.00,WUHU216HW,2013-02-14 21:13:00,
2013-02-14 14:15:00,60.5,25.0,30.01,North,0,0.0,0.0,26,0.00,,,0.00,WUHU216HW,2013-02-14 21:15:00,
2013-02-14 14:16:00,60.7,24.2,30.01,North,0,0.0,0.0,25,0.00,,,0.00,WUHU216HW,2013-02-14 21:16:00,
2013-02-14 14:18:00,60.8,23.4,30.01,North,0,0.0,0.0,24,0.00,,,0.00,WUHU216HW,2013-02-14 21:18:00,
2013-02-14 14:20:00,60.8,24.4,30.01,North,0,0.0,0.0,25,0.00,,,0.00,WUHU216HW,2013-02-14 21:20:00,
2013-02-14 14:21:00,60.8,24.4,30.01,North,0,0.0,0.0,25,0.00,,,0.00,WUHU216HW,2013-02-14 21:21:00,
2013-02-14 14:23:00,60.8,24.4,30.00,North,0,0.0,0.0,25,0.00,,,0.00,WUHU216HW,2013-02-14 21:23:00,
2013-02-14 14:25:00,61.0,24.6,30.00,North,0,0.0,0.0,25,0.00,,,0.00,WUHU216HW,2013-02-14 21:25:00,
2013-02-14 14:27:00,61.2,23.8,30.00,North,0,0.0,0.0,24,0.00,,,0.00,WUHU216HW,2013-02-14 21:27:00,
2013-02-14 14:28:00,61.0,23.6,30.00,North,0,0.0,0.0,24,0.00,,,0.00,WUHU216HW,2013-02-14 21:28:00,
2013-02-14 14:29:00,61.2,23.8,30.00,North,0,0.0,0.0,24,0.00,,,0.00,WUHU216HW,2013-02-14 21:29:00,
2013-02-14 14:31:00,61.2,23.8,30.00,North,0,0.0,0.0,24,0.00,,,0.00,WUHU216HW,2013-02-14 21:31:00,
2013-02-14 14:33:00,61.2,23.8,30.00,North,0,0.0,0.0,24,0.00,,,0.00,WUHU216HW,2013-02-14 21:33:00,
2013-02-14 14:34:00,61.2,23.8,30.00,North,0,0.0,0.0,24,0.00,,,0.00,WUHU216HW,2013-02-14 21:34:00,
2013-02-14 14:35:00,61.2,23.8,30.00,North,0,0.0,0.0,24,0.00,,,0.00,WUHU216HW,2013-02-14 21:35:00,
2013-02-14 14:36:00,61.2,23.8,30.00,North,0,0.0,0.0,24,0.00,,,0.00,WUHU216HW,2013-02-14 21:36:00,
2013-02-14 14:39:00,61.0,23.6,30.00,North,0,0.0,0.0,24,0.00,,,0.00,WUHU216HW,2013-02-14 21:39:00,
2013-02-14 14:41:00,60.8,23.4,30.00,North,0,0.0,0.0,24,0.00,,,0.00,WUHU216HW,2013-02-14 21:41:00,
2013-02-14 14:42:00,61.0,23.6,30.00,North,0,0.0,0.0,24,0.00,,,0.00,WUHU216HW,2013-02-14 21:42:00,
2013-02-14 14:45:00,60.8,24.4,30.00,North,0,0.0,0.0,25,0.00,,,0.00,WUHU216HW,2013-02-14 21:45:00,
2013-02-14 14:47:00,60.8,24.4,30.00,North,0,0.0,0.0,25,0.00,,,0.00,WUHU216HW,2013-02-14 21:47:00,
2013-02-14 14:48:00,60.8,24.4,30.00,North,0,0.0,0.0,25,0.00,,,0.00,WUHU216HW,2013-02-14 21:48:00,
2013-02-14 14:50:00,61.0,24.6,30.00,North,0,0.0,0.0,25,0.00,,,0.00,WUHU216HW,2013-02-14 21:50:00,
2013-02-14 14:51:00,61.0,24.6,30.00,North,0,0.0,0.0,25,0.00,,,0.00,WUHU216HW,2013-02-14 21:51:00,
2013-02-14 14:52:00,61.0,24.6,30.00,North,0,0.0,0.0,25,0.00,,,0.00,WUHU216HW,2013-02-14 21:52:00,
2013-02-14 14:53:00,61.0,24.6,30.00,North,0,0.0,0.0,25,0.00,,,0.00,WUHU216HW,2013-02-14 21:53:00,
2013-02-14 14:56:00,61.0,23.6,30.00,North,0,0.0,0.0,24,0.00,,,0.00,WUHU216HW,2013-02-14 21:56:00,
2013-02-14 14:58:00,61.0,23.6,30.00,North,0,0.0,0.0,24,0.00,,,0.00,WUHU216HW,2013-02-14 21:58:00,
2013-02-14 15:00:00,60.8,23.4,30.00,North,0,0.0,0.0,24,0.00,,,0.00,WUHU216HW,2013-02-14 22:00:00,
2013-02-14 15:01:00,60.8,24.4,30.00,North,0,0.0,0.0,25,0.00,,,0.00,WUHU216HW,2013-02-14 22:01:00,
2013-02-14 15:03:00,60.8,23.4,30.00,North,0,0.0,0.0,24,0.00,,,0.00,WUHU216HW,2013-02-14 22:03:00,
2013-02-14 15:05:00,60.8,24.4,30.00,North,0,0.0,0.0,25,0.00,,,0.00,WUHU216HW,2013-02-14 22:05:00,
2013-02-14 15:07:00,60.8,24.4,30.00,North,0,0.0,0.0,25,0.00,,,0.00,WUHU216HW,2013-02-14 22:07:00,
2013-02-14 15:08:00,60.8,23.4,30.00,North,0,0.0,0.0,24,0.00,,,0.00,WUHU216HW,2013-02-14 22:08:00,
2013-02-14 15:11:00,60.8,24.4,30.00,North,0,0.0,0.0,25,0.00,,,0.00,WUHU216HW,2013-02-14 22:11:00,
2013-02-14 15:12:00,60.8,24.4,30.00,North,0,0.0,0.0,25,0.00,,,0.00,WUHU216HW,2013-02-14 22:12:00,
2013-02-14 15:15:00,60.8,23.4,30.00,North,0,0.0,0.0,24,0.00,,,0.00,WUHU216HW,2013-02-14 22:15:00,
2013-02-14 15:17:00,60.8,24.4,30.00,North,0,0.0,0.0,25,0.00,,,0.00,WUHU216HW,2013-02-14 22:17:00,
2013-02-14 15:21:00,60.8,24.4,30.00,North,0,0.0,0.0,25,0.00,,,0.00,WUHU216HW,2013-02-14 22:21:00,
2013-02-14 15:23:00,61.0,24.6,30.00,North,0,0.0,0.0,25,0.00,,,0.00,WUHU216HW,2013-02-14 22:23:00,
2013-02-14 15:24:00,60.8,24.4,30.00,North,0,0.0,0.0,25,0.00,,,0.00,WUHU216HW,2013-02-14 22:24:00,
2013-02-14 15:27:00,61.0,24.6,29.99,North,0,0.0,0.0,25,0.00,,,0.00,WUHU216HW,2013-02-14 22:27:00,
2013-02-14 15:28:00,61.0,24.6,29.99,North,0,0.0,0.0,25,0.00,,,0.00,WUHU216HW,2013-02-14 22:28:00,
2013-02-14 15:29:00,61.0,24.6,29.99,North,0,0.0,0.0,25,0.00,,,0.00,WUHU216HW,2013-02-14 22:29:00,
2013-02-14 15:32:00,61.0,24.6,29.99,North,0,0.0,0.0,25,0.00,,,0.00,WUHU216HW,2013-02-14 22:32:00,
2013-02-14 15:33:00,61.0,24.6,29.99,North,0,0.0,0.0,25,0.00,,,0.00,WUHU216HW,2013-02-14 22:33:00,
2013-02-14 15:34:00,61.0,25.5,29.99,North,0,0.0,0.0,26,0.00,,,0.00,WUHU216HW,2013-02-14 22:34:00,
2013-02-14 15:35:00,61.0,24.6,29.99,North,0,0.0,0.0,25,0.00,,,0.00,WUHU216HW,2013-02-14 22:35:00,
2013-02-14 15:38:00,61.2,23.8,29.99,North,0,0.0,0.0,24,0.00,,,0.00,WUHU216HW,2013-02-14 22:38:00,
2013-02-14 15:39:00,61.2,23.8,29.99,North,0,0.0,0.0,24,0.00,,,0.00,WUHU216HW,2013-02-14 22:39:00,
2013-02-14 15:41:00,61.0,24.6,29.99,North,0,0.0,0.0,25,0.00,,,0.00,WUHU216HW,2013-02-14 22:41:00,
2013-02-14 15:44:00,61.0,23.6,29.99,North,0,0.0,0.0,24,0.00,,,0.00,WUHU216HW,2013-02-14 22:44:00,
2013-02-14 15:45:00,61.0,23.6,29.99,North,0,0.0,0.0,24,0.00,,,0.00,WUHU216HW,2013-02-14 22:45:00,
2013-02-14 15:46:00,60.8,23.4,29.99,North,0,0.0,0.0,24,0.00,,,0.00,WUHU216HW,2013-02-14 22:46:00,
2013-02-14 15:49:00,61.0,23.6,29.99,North,0,0.0,0.0,24,0.00,,,0.00,WUHU216HW,2013-02-14 22:49:00,
2013-02-14 15:50:00,61.0,24.6,29.99,North,0,0.0,0.0,25,0.00,,,0.00,WUHU216HW,2013-02-14 22:50:00,
2013-02-14 15:51:00,61.0,24.6,29.99,North,0,0.0,0.0,25,0.00,,,0.00,WUHU216HW,2013-02-14 22:51:00,
2013-02-14 15:52:00,61.0,24.6,29.99,North,0,0.0,0.0,25,0.00,,,0.00,WUHU216HW,2013-02-14 22:52:00,
2013-02-14 15:54:00,61.2,24.7,29.99,North,0,0.0,0.0,25,0.00,,,0.00,WUHU216HW,2013-02-14 22:54:00,
2013-02-14 15:56:00,61.2,23.8,29.99,North,0,0.0,0.0,24,0.00,,,0.00,WUHU216HW,2013-02-14 22:56:00,
2013-02-14 15:57:00,61.2,24.7,29.99,North,0,0.0,0.0,25,0.00,,,0.00,WUHU216HW,2013-02-14 22:57:00,
2013-02-14 16:00:00,61.2,23.8,29.99,North,0,0.0,0.0,24,0.00,,,0.00,WUHU216HW,2013-02-14 23:00:00,
2013-02-14 16:01:00,61.2,23.8,29.99,North,0,0.0,0.0,24,0.00,,,0.00,WUHU216HW,2013-02-14 23:01:00,
2013-02-14 16:02:00,61.2,23.8,29.99,North,0,0.0,0.0,24,0.00,,,0.00,WUHU216HW,2013-02-14 23:02:00,
2013-02-14 16:06:00,61.2,24.7,29.99,North,0,0.0,0.0,25,0.00,,,0.00,WUHU216HW,2013-02-14 23:06:00,
2013-02-14 16:07:00,61.2,24.7,29.99,North,0,0.0,0.0,25,0.00,,,0.00,WUHU216HW,2013-02-14 23:07:00,
2013-02-14 16:11:00,61.2,24.7,29.99,North,0,0.0,0.0,25,0.00,,,0.00,WUHU216HW,2013-02-14 23:11:00,
2013-02-14 16:12:00,61.4,24.8,29.99,North,0,0.0,0.0,25,0.00,,,0.00,WUHU216HW,2013-02-14 23:12:00,
2013-02-14 16:13:00,61.4,24.8,29.99,North,0,0.0,0.0,25,0.00,,,0.00,WUHU216HW,2013-02-14 23:13:00,
2013-02-14 16:16:00,61.4,24.8,29.99,North,0,0.0,0.0,25,0.00,,,0.00,WUHU216HW,2013-02-14 23:16:00,
2013-02-14 16:18:00,61.4,25.8,29.99,North,0,0.0,0.0,26,0.00,,,0.00,WUHU216HW,2013-02-14 23:18:00,
2013-02-14 16:19:00,61.6,25.9,29.99,North,0,0.0,0.0,26,0.00,,,0.00,WUHU216HW,2013-02-14 23:19:00,
2013-02-14 16:22:00,61.4,24.8,29.99,North,0,0.0,0.0,25,0.00,,,0.00,WUHU216HW,2013-02-14 23:22:00,
2013-02-14 16:23:00,61.4,24.8,29.99,North,0,0.0,0.0,25,0.00,,,0.00,WUHU216HW,2013-02-14 23:23:00,
2013-02-14 16:24:00,61.4,24.8,29.99,North,0,0.0,0.0,25,0.00,,,0.00,WUHU216HW,2013-02-14 23:24:00,
2013-02-14 16:27:00,61.2,23.8,29.99,North,0,0.0,0.0,24,0.00,,,0.00,WUHU216HW,2013-02-14 23:27:00,
2013-02-14 16:29:00,61.2,23.8,29.99,North,0,0.0,0.0,24,0.00,,,0.00,WUHU216HW,2013-02-14 23:29:00,
2013-02-14 16:30:00,61.2,23.8,30.00,North,0,0.0,0.0,24,0.00,,,0.00,WUHU216HW,2013-02-14 23:30:00,
2013-02-14 16:33:00,61.2,23.8,29.99,North,0,0.0,0.0,24,0.00,,,0.00,WUHU216HW,2013-02-14 23:33:00,
2013-02-14 16:34:00,61.2,23.8,29.99,North,0,0.0,0.0,24,0.00,,,0.00,WUHU216HW,2013-02-14 23:34:00,
2013-02-14 16:35:00,61.2,23.8,29.99,North,0,0.0,0.0,24,0.00,,,0.00,WUHU216HW,2013-02-14 23:35:00,
2013-02-14 16:36:00,61.0,23.6,29.99,North,0,0.0,0.0,24,0.00,,,0.00,WUHU216HW,2013-02-14 23:36:00,
2013-02-14 16:38:00,60.8,22.5,30.00,North,0,0.0,0.0,23,0.00,,,0.00,WUHU216HW,2013-02-14 23:38:00,
2013-02-14 16:40:00,60.8,22.5,30.00,North,0,0.0,0.0,23,0.00,,,0.00,WUHU216HW,2013-02-14 23:40:00,
2013-02-14 16:41:00,60.8,22.5,30.00,North,0,0.0,0.0,23,0.00,,,0.00,WUHU216HW,2013-02-14 23:41:00,
2013-02-14 16:44:00,60.7,23.3,30.00,North,0,0.0,0.0,24,0.00,,,0.00,WUHU216HW,2013-02-14 23:44:00,
2013-02-14 16:46:00,60.7,23.3,30.00,North,0,0.0,0.0,24,0.00,,,0.00,WUHU216HW,2013-02-14 23:46:00,
2013-02-14 16:47:00,60.7,23.3,30.00,North,0,0.0,0.0,24,0.00,,,0.00,WUHU216HW,2013-02-14 23:47:00,
2013-02-14 16:49:00,60.5,23.1,30.00,North,0,0.0,0.0,24,0.00,,,0.00,WUHU216HW,2013-02-14 23:49:00,
2013-02-14 16:51:00,60.5,23.1,30.00,North,0,0.0,0.0,24,0.00,,,0.00,WUHU216HW,2013-02-14 23:51:00,
2013-02-14 16:52:00,60.5,23.1,30.00,North,0,0.0,0.0,24,0.00,,,0.00,WUHU216HW,2013-02-14 23:52:00,
2013-02-14 16:54:00,60.3,22.1,30.00,North,0,0.0,0.0,23,0.00,,,0.00,WUHU216HW,2013-02-14 23:54:00,
2013-02-14 16:57:00,60.3,23.0,30.00,North,0,0.0,0.0,24,0.00,,,0.00,WUHU216HW,2013-02-14 23:57:00,
2013-02-14 16:58:00,60.3,23.0,30.00,North,0,0.0,0.0,24,0.00,,,0.00,WUHU216HW,2013-02-14 23:58:00,
2013-02-14 17:00:00,60.3,23.0,30.00,North,0,0.0,0.0,24,0.00,,,0.00,WUHU216HW,2013-02-15 00:00:00,
2013-02-14 17:02:00,60.1,22.9,30.00,North,0,0.0,0.0,24,0.00,,,0.00,WUHU216HW,2013-02-15 00:02:00,
2013-02-14 17:03:00,60.1,22.9,30.00,North,0,0.0,0.0,24,0.00,,,0.00,WUHU216HW,2013-02-15 00:03:00,
2013-02-14 17:04:00,60.1,22.9,30.00,North,0,0.0,0.0,24,0.00,,,0.00,WUHU216HW,2013-02-15 00:04:00,
2013-02-14 17:05:00,60.1,22.9,30.00,North,0,0.0,0.0,24,0.00,,,0.00,WUHU216HW,2013-02-15 00:05:00,
2013-02-14 17:08:00,60.1,23.8,30.00,North,0,0.0,0.0,25,0.00,,,0.00,WUHU216HW,2013-02-15 00:08:00,
2013-02-14 17:09:00,60.1,22.9,29.99,North,0,0.0,0.0,24,0.00,,,0.00,WUHU216HW,2013-02-15 00:09:00,
2013-02-14 17:10:00,60.1,23.8,30.00,North,0,0.0,0.0,25,0.00,,,0.00,WUHU216HW,2013-02-15 00:10:00,
2013-02-14 17:13:00,60.1,23.8,30.00,North,0,0.0,0.0,25,0.00,,,0.00,WUHU216HW,2013-02-15 00:13:00,
2013-02-14 17:14:00,60.1,22.9,30.00,North,0,0.0,0.0,24,0.00,,,0.00,WUHU216HW,2013-02-15 00:14:00,
2013-02-14 17:16:00,60.1,22.9,29.99,North,0,0.0,0.0,24,0.00,,,0.00,WUHU216HW,2013-02-15 00:16:00,
2013-02-14 17:17:00,59.9,22.7,30.00,North,0,0.0,0.0,24,0.00,,,0.00,WUHU216HW,2013-02-15 00:17:00,
2013-02-14 17:18:00,59.9,22.7,30.00,North,0,0.0,0.0,24,0.00,,,0.00,WUHU216HW,2013-02-15 00:18:00,
2013-02-14 17:20:00,59.8,22.5,29.99,North,0,0.0,0.0,24,0.00,,,0.00,WUHU216HW,2013-02-15 00:20:00,
2013-02-14 17:21:00,59.8,22.5,29.99,North,0,0.0,0.0,24,0.00,,,0.00,WUHU216HW,2013-02-15 00:21:00,
2013-02-14 17:22:00,59.8,23.5,30.00,North,0,0.0,0.0,25,0.00,,,0.00,WUHU216HW,2013-02-15 00:22:00,
2013-02-14 17:24:00,59.6,22.3,29.99,North,0,0.0,0.0,24,0.00,,,0.00,WUHU216HW,2013-02-15 00:24:00,
2013-02-14 17:25:00,59.6,23.3,29.99,North,0,0.0,0.0,25,0.00,,,0.00,WUHU216HW,2013-02-15 00:25:00,
2013-02-14 17:26:00,59.4,23.1,29.99,North,0,0.0,0.0,25,0.00,,,0.00,WUHU216HW,2013-02-15 00:26:00,
2013-02-14 17:28:00,59.4,23.1,30.00,North,0,0.0,0.0,25,0.00,,,0.00,WUHU216HW,2013-02-15 00:28:00,
2013-02-14 17:29:00,59.4,23.1,29.99,North,0,0.0,0.0,25,0.00,,,0.00,WUHU216HW,2013-02-15 00:29:00,
2013-02-14 17:31:00,59.2,23.1,30.00,North,0,0.0,0.0,25,0.00,,,0.00,WUHU216HW,2013-02-15 00:31:00,
2013-02-14 17:32:00,59.0,22.9,29.99,North,0,0.0,0.0,25,0.00,,,0.00,WUHU216HW,2013-02-15 00:32:00,
2013-02-14 17:33:00,59.0,22.9,30.00,North,0,0.0,0.0,25,0.00,,,0.00,WUHU216HW,2013-02-15 00:33:00,
2013-02-14 17:35:00,59.0,22.9,30.00,North,0,0.0,0.0,25,0.00,,,0.00,WUHU216HW,2013-02-15 00:35:00,
2013-02-14 17:36:00,58.7,22.6,30.00,North,0,0.0,0.0,25,0.00,,,0.00,WUHU216HW,2013-02-15 00:36:00,
2013-02-14 17:38:00,58.7,22.6,30.00,North,0,0.0,0.0,25,0.00,,,0.00,WUHU216HW,2013-02-15 00:38:00,
2013-02-14 17:39:00,58.5,22.4,30.00,North,0,0.0,0.0,25,0.00,,,0.00,WUHU216HW,2013-02-15 00:39:00,
2013-02-14 17:40:00,58.5,22.4,30.00,North,0,0.0,0.0,25,0.00,,,0.00,WUHU216HW,2013-02-15 00:40:00,
2013-02-14 17:42:00,58.3,22.2,30.00,North,0,0.0,0.0,25,0.00,,,0.00,WUHU216HW,2013-02-15 00:42:00,
2013-02-14 17:44:00,58.3,22.2,30.00,North,0,0.0,0.0,25,0.00,,,0.00,WUHU216HW,2013-02-15 00:44:00,
2013-02-14 17:45:00,58.1,23.0,30.00,North,0,0.0,0.0,26,0.00,,,0.00,WUHU216HW,2013-02-15 00:45:00,
2013-02-14 17:47:00,58.0,22.9,30.00,North,0,0.0,0.0,26,0.00,,,0.00,WUHU216HW,2013-02-15 00:47:00,
2013-02-14 17:49:00,58.0,23.9,30.00,North,0,0.0,0.0,27,0.00,,,0.00,WUHU216HW,2013-02-15 00:49:00,
2013-02-14 17:51:00,58.0,23.9,30.00,North,0,0.0,0.0,27,0.00,,,0.00,WUHU216HW,2013-02-15 00:51:00,
2013-02-14 17:52:00,57.8,23.7,30.00,North,0,0.0,0.0,27,0.00,,,0.00,WUHU216HW,2013-02-15 00:52:00,
2013-02-14 17:54:00,57.6,23.6,30.00,North,0,0.0,0.0,27,0.00,,,0.00,WUHU216HW,2013-02-15 00:54:00,
2013-02-14 17:57:00,57.6,23.6,30.00,North,0,0.0,0.0,27,0.00,,,0.00,WUHU216HW,2013-02-15 00:57:00,
2013-02-14 17:58:00,57.6,23.6,30.00,North,0,0.0,0.0,27,0.00,,,0.00,WUHU216HW,2013-02-15 00:58:00,
2013-02-14 18:00:00,57.4,23.4,30.00,North,0,0.0,0.0,27,0.00,,,0.00,WUHU216HW,2013-02-15 01:00:00,
2013-02-14 18:02:00,57.2,23.2,30.00,North,0,0.0,0.0,27,0.00,,,0.00,WUHU216HW,2013-02-15 01:02:00,
2013-02-14 18:04:00,57.2,23.2,30.01,North,0,0.0,0.0,27,0.00,,,0.00,WUHU216HW,2013-02-15 01:04:00,
2013-02-14 18:05:00,57.2,23.2,30.01,North,0,0.0,0.0,27,0.00,,,0.00,WUHU216HW,2013-02-15 01:05:00,
2013-02-14 18:07:00,57.2,23.2,30.00,North,0,0.0,0.0,27,0.00,,,0.00,WUHU216HW,2013-02-15 01:07:00,
2013-02-14 18:09:00,57.1,24.0,30.01,North,0,0.0,0.0,28,0.00,,,0.00,WUHU216HW,2013-02-15 01:09:00,
2013-02-14 18:11:00,56.9,23.9,30.01,North,0,0.0,0.0,28,0.00,,,0.00,WUHU216HW,2013-02-15 01:11:00,
2013-02-14 18:12:00,56.9,23.9,30.01,North,0,0.0,0.0,28,0.00,,,0.00,WUHU216HW,2013-02-15 01:12:00,
2013-02-14 18:14:00,56.7,23.8,30.01,North,0,0.0,0.0,28,0.00,,,0.00,WUHU216HW,2013-02-15 01:14:00,
2013-02-14 18:15:00,56.7,23.8,30.01,North,0,0.0,0.0,28,0.00,,,0.00,WUHU216HW,2013-02-15 01:15:00,
2013-02-14 18:16:00,56.5,23.6,30.01,North,0,0.0,0.0,28,0.00,,,0.00,WUHU216HW,2013-02-15 01:16:00,
2013-02-14 18:18:00,56.5,24.5,30.01,North,0,0.0,0.0,29,0.00,,,0.00,WUHU216HW,2013-02-15 01:18:00,
2013-02-14 18:20:00,56.5,24.5,30.01,North,0,0.0,0.0,29,0.00,,,0.00,WUHU216HW,2013-02-15 01:20:00,
2013-02-14 18:23:00,56.2,24.2,30.01,North,0,0.0,0.0,29,0.00,,,0.00,WUHU216HW,2013-02-15 01:23:00,
2013-02-14 18:24:00,56.2,24.2,30.01,North,0,0.0,0.0,29,0.00,,,0.00,WUHU216HW,2013-02-15 01:24:00,
2013-02-14 18:25:00,56.2,24.2,30.01,North,0,0.0,0.0,29,0.00,,,0.00,WUHU216HW,2013-02-15 01:25:00,
2013-02-14 18:27:00,56.0,24.0,30.01,North,0,0.0,0.0,29,0.00,,,0.00,WUHU216HW,2013-02-15 01:27:00,
2013-02-14 18:28:00,55.8,23.9,30.01,North,0,0.0,0.0,29,0.00,,,0.00,WUHU216HW,2013-02-15 01:28:00,
2013-02-14 18:29:00,55.8,23.9,30.01,North,0,0.0,0.0,29,0.00,,,0.00,WUHU216HW,2013-02-15 01:29:00,
2013-02-14 18:30:00,55.6,23.7,30.01,North,0,0.0,0.0,29,0.00,,,0.00,WUHU216HW,2013-02-15 01:30:00,
2013-02-14 18:33:00,55.3,23.4,30.02,North,0,0.0,0.0,29,0.00,,,0.00,WUHU216HW,2013-02-15 01:33:00,
2013-02-14 18:34:00,55.3,23.4,30.02,North,0,0.0,0.0,29,0.00,,,0.00,WUHU216HW,2013-02-15 01:34:00,
2013-02-14 18:35:00,55.1,24.2,30.02,North,0,0.0,0.0,30,0.00,,,0.00,WUHU216HW,2013-02-15 01:35:00,
2013-02-14 18:38:00,54.9,24.0,30.02,North,0,0.0,0.0,30,0.00,,,0.00,WUHU216HW,2013-02-15 01:38:00,
2013-02-14 18:39:00,54.7,24.0,30.02,North,0,0.0,0.0,30,0.00,,,0.00,WUHU216HW,2013-02-15 01:39:00,
2013-02-14 18:40:00,54.7,24.0,30.02,North,0,0.0,0.0,30,0.00,,,0.00,WUHU216HW,2013-02-15 01:40:00,
2013-02-14 18:41:00,54.7,24.0,30.02,North,0,0.0,0.0,30,0.00,,,0.00,WUHU216HW,2013-02-15 01:41:00,
2013-02-14 18:44:00,54.4,23.6,30.02,North,0,0.0,0.0,30,0.00,,,0.00,WUHU216HW,2013-02-15 01:44:00,
2013-02-14 18:45:00,54.2,23.5,30.03,North,0,0.0,0.0,30,0.00,,,0.00,WUHU216HW,2013-02-15 01:45:00,
2013-02-14 18:46:00,54.2,23.5,30.03,North,0,0.0,0.0,30,0.00,,,0.00,WUHU216HW,2013-02-15 01:46:00,
2013-02-14 18:50:00,53.8,23.9,30.02,North,0,0.0,0.0,31,0.00,,,0.00,WUHU216HW,2013-02-15 01:50:00,
2013-02-14 18:51:00,53.6,23.8,30.03,North,0,0.0,0.0,31,0.00,,,0.00,WUHU216HW,2013-02-15 01:51:00,
2013-02-14 18:55:00,53.1,23.2,30.03,North,0,0.0,0.0,31,0.00,,,0.00,WUHU216HW,2013-02-15 01:55:00,
2013-02-14 18:56:00,52.9,23.0,30.03,North,0,0.0,0.0,31,0.00,,,0.00,WUHU216HW,2013-02-15 01:56:00,
2013-02-14 18:57:00,52.9,23.0,30.03,North,0,0.0,0.0,31,0.00,,,0.00,WUHU216HW,2013-02-15 01:57:00,
2013-02-14 19:00:00,52.9,23.8,30.03,North,0,0.0,0.0,32,0.00,,,0.00,WUHU216HW,2013-02-15 02:00:00,
2013-02-14 19:01:00,52.9,23.8,30.03,North,0,0.0,0.0,32,0.00,,,0.00,WUHU216HW,2013-02-15 02:01:00,
2013-02-14 19:02:00,52.9,23.8,30.03,North,0,0.0,0.0,32,0.00,,,0.00,WUHU216HW,2013-02-15 02:02:00,
2013-02-14 19:05:00,52.7,23.6,30.03,North,0,0.0,0.0,32,0.00,,,0.00,WUHU216HW,2013-02-15 02:05:00,
2013-02-14 19:06:00,52.7,23.0,30.04,North,0,0.0,0.0,31,0.00,,,0.00,WUHU216HW,2013-02-15 02:06:00,
2013-02-14 19:07:00,52.9,23.0,30.04,North,0,0.0,0.0,31,0.00,,,0.00,WUHU216HW,2013-02-15 02:07:00,
2013-02-14 19:10:00,53.3,23.4,30.04,North,0,0.0,0.0,31,0.00,,,0.00,WUHU216HW,2013-02-15 02:10:00,
2013-02-14 19:12:00,53.3,23.4,30.04,North,0,0.0,0.0,31,0.00,,,0.00,WUHU216HW,2013-02-15 02:12:00,
2013-02-14 19:13:00,53.3,23.4,30.04,North,0,0.0,0.0,31,0.00,,,0.00,WUHU216HW,2013-02-15 02:13:00,
2013-02-14 19:15:00,53.5,23.6,30.04,North,0,0.0,0.0,31,0.00,,,0.00,WUHU216HW,2013-02-15 02:15:00,
2013-02-14 19:17:00,53.6,23.8,30.04,North,0,0.0,0.0,31,0.00,,,0.00,WUHU216HW,2013-02-15 02:17:00,
2013-02-14 19:19:00,53.6,23.8,30.04,North,0,0.0,0.0,31,0.00,,,0.00,WUHU216HW,2013-02-15 02:19:00,
2013-02-14 19:21:00,53.6,23.8,30.04,North,0,0.0,0.0,31,0.00,,,0.00,WUHU216HW,2013-02-15 02:21:00,
2013-02-14 19:24:00,53.3,23.4,30.04,North,0,0.0,0.0,31,0.00,,,0.00,WUHU216HW,2013-02-15 02:24:00,
2013-02-14 19:25:00,53.3,23.4,30.04,North,0,0.0,0.0,31,0.00,,,0.00,WUHU216HW,2013-02-15 02:25:00,
2013-02-14 19:27:00,53.3,23.4,30.04,North,0,0.0,0.0,31,0.00,,,0.00,WUHU216HW,2013-02-15 02:27:00,
2013-02-14 19:29:00,53.3,23.4,30.04,North,0,0.0,0.0,31,0.00,,,0.00,WUHU216HW,2013-02-15 02:29:00,
2013-02-14 19:30:00,53.3,23.4,30.04,North,0,0.0,0.0,31,0.00,,,0.00,WUHU216HW,2013-02-15 02:30:00,
2013-02-14 19:32:00,53.1,23.2,30.05,North,0,0.0,0.0,31,0.00,,,0.00,WUHU216HW,2013-02-15 02:32:00,
2013-02-14 19:35:00,53.1,23.2,30.05,North,0,0.0,0.0,31,0.00,,,0.00,WUHU216HW,2013-02-15 02:35:00,
2013-02-14 19:36:00,53.1,23.2,30.05,North,0,0.0,0.0,31,0.00,,,0.00,WUHU216HW,2013-02-15 02:36:00,
2013-02-14 19:37:00,53.1,23.2,30.05,North,0,0.0,0.0,31,0.00,,,0.00,WUHU216HW,2013-02-15 02:37:00,
2013-02-14 19:40:00,52.7,23.6,30.05,North,0,0.0,0.0,32,0.00,,,0.00,WUHU216HW,2013-02-15 02:40:00,
2013-02-14 19:41:00,52.7,23.6,30.05,North,0,0.0,0.0,32,0.00,,,0.00,WUHU216HW,2013-02-15 02:41:00,
2013-02-14 19:43:00,52.6,23.4,30.05,North,0,0.0,0.0,32,0.00,,,0.00,WUHU216HW,2013-02-15 02:43:00,
2013-02-14 19:45:00,52.2,23.1,30.05,North,0,0.0,0.0,32,0.00,,,0.00,WUHU216HW,2013-02-15 02:45:00,
2013-02-14 19:46:00,52.2,23.1,30.05,North,0,0.0,0.0,32,0.00,,,0.00,WUHU216HW,2013-02-15 02:46:00,
2013-02-14 19:47:00,52.2,23.1,30.05,North,0,0.0,0.0,32,0.00,,,0.00,WUHU216HW,2013-02-15 02:47:00,
2013-02-14 19:48:00,52.2,23.1,30.05,North,0,0.0,0.0,32,0.00,,,0.00,WUHU216HW,2013-02-15 02:48:00,
2013-02-14 19:51:00,52.0,23.0,30.05,North,0,0.0,0.0,32,0.00,,,0.00,WUHU216HW,2013-02-15 02:51:00,
2013-02-14 19:52:00,52.0,23.0,30.05,North,0,0.0,0.0,32,0.00,,,0.00,WUHU216HW,2013-02-15 02:52:00,
2013-02-14 19:53:00,52.0,23.0,30.05,North,0,0.0,0.0,32,0.00,,,0.00,WUHU216HW,2013-02-15 02:53:00,
2013-02-14 19:54:00,52.0,23.0,30.05,North,0,0.0,0.0,32,0.00,,,0.00,WUHU216HW,2013-02-15 02:54:00,
2013-02-14 19:57:00,51.8,22.8,30.05,North,0,0.0,0.0,32,0.00,,,0.00,WUHU216HW,2013-02-15 02:57:00,
2013-02-14 19:58:00,51.8,23.5,30.05,North,0,0.0,0.0,33,0.00,,,0.00,WUHU216HW,2013-02-15 02:58:00,
2013-02-14 19:59:00,51.8,23.5,30.05,North,0,0.0,0.0,33,0.00,,,0.00,WUHU216HW,2013-02-15 02:59:00,
2013-02-14 20:03:00,51.8,23.5,30.05,North,0,0.0,0.0,33,0.00,,,0.00,WUHU216HW,2013-02-15 03:03:00,
2013-02-14 20:04:00,51.7,23.3,30.05,North,0,0.0,0.0,33,0.00,,,0.00,WUHU216HW,2013-02-15 03:04:00,
2013-02-14 20:05:00,51.7,23.3,30.06,North,0,0.0,0.0,33,0.00,,,0.00,WUHU216HW,2013-02-15 03:05:00,
2013-02-14 20:08:00,51.7,23.3,30.06,North,0,0.0,0.0,33,0.00,,,0.00,WUHU216HW,2013-02-15 03:08:00,
2013-02-14 20:09:00,51.7,23.3,30.06,North,0,0.0,0.0,33,0.00,,,0.00,WUHU216HW,2013-02-15 03:09:00,
2013-02-14 20:10:00,51.7,23.3,30.06,North,0,0.0,0.0,33,0.00,,,0.00,WUHU216HW,2013-02-15 03:10:00,
2013-02-14 20:13:00,51.7,23.3,30.06,North,0,0.0,0.0,33,0.00,,,0.00,WUHU216HW,2013-02-15 03:13:00,
2013-02-14 20:15:00,51.7,23.3,30.06,North,0,0.0,0.0,33,0.00,,,0.00,WUHU216HW,2013-02-15 03:15:00,
2013-02-14 20:19:00,51.5,23.1,30.06,North,0,0.0,0.0,33,0.00,,,0.00,WUHU216HW,2013-02-15 03:19:00,
2013-02-14 20:20:00,51.5,23.1,30.06,North,0,0.0,0.0,33,0.00,,,0.00,WUHU216HW,2013-02-15 03:20:00,
2013-02-14 20:21:00,51.5,23.1,30.06,North,0,0.0,0.0,33,0.00,,,0.00,WUHU216HW,2013-02-15 03:21:00,
2013-02-14 20:24:00,51.3,23.0,30.06,North,0,0.0,0.0,33,0.00,,,0.00,WUHU216HW,2013-02-15 03:24:00,
2013-02-14 20:25:00,51.1,22.9,30.06,North,0,0.0,0.0,33,0.00,,,0.00,WUHU216HW,2013-02-15 03:25:00,
2013-02-14 20:26:00,51.1,22.9,30.06,North,0,0.0,0.0,33,0.00,,,0.00,WUHU216HW,2013-02-15 03:26:00,
2013-02-14 20:29:00,50.6,23.1,30.06,North,0,0.0,0.0,34,0.00,,,0.00,WUHU216HW,2013-02-15 03:29:00,
2013-02-14 20:30:00,50.4,22.9,30.06,North,0,0.0,0.0,34,0.00,,,0.00,WUHU216HW,2013-02-15 03:30:00,
2013-02-14 20:31:00,50.4,22.9,30.07,North,0,0.0,0.0,34,0.00,,,0.00,WUHU216HW,2013-02-15 03:31:00,
2013-02-14 20:36:00,50.0,22.5,30.07,North,0,0.0,0.0,34,0.00,,,0.00,WUHU216HW,2013-02-15 03:36:00,
2013-02-14 20:37:00,49.9,22.4,30.07,North,0,0.0,0.0,34,0.00,,,0.00,WUHU216HW,2013-02-15 03:37:00,
2013-02-14 20:41:00,49.5,22.8,30.07,North,0,0.0,0.0,35,0.00,,,0.00,WUHU216HW,2013-02-15 03:41:00,
2013-02-14 20:42:00,49.5,22.8,30.07,North,0,0.0,0.0,35,0.00,,,0.00,WUHU216HW,2013-02-15 03:42:00,
2013-02-14 20:46:00,49.3,22.6,30.07,North,0,0.0,0.0,35,0.00,,,0.00,WUHU216HW,2013-02-15 03:46:00,
2013-02-14 20:47:00,49.3,22.6,30.07,North,0,0.0,0.0,35,0.00,,,0.00,WUHU216HW,2013-02-15 03:47:00,
2013-02-14 20:48:00,49.5,22.8,30.07,North,0,0.0,0.0,35,0.00,,,0.00,WUHU216HW,2013-02-15 03:48:00,
2013-02-14 20:51:00,49.7,23.0,30.07,North,0,0.0,0.0,35,0.00,,,0.00,WUHU216HW,2013-02-15 03:51:00,
2013-02-14 20:52:00,49.7,23.0,30.07,North,0,0.0,0.0,35,0.00,,,0.00,WUHU216HW,2013-02-15 03:52:00,
2013-02-14 20:53:00,49.7,23.0,30.07,North,0,0.0,0.0,35,0.00,,,0.00,WUHU216HW,2013-02-15 03:53:00,
2013-02-14 20:55:00,49.7,23.6,30.07,North,0,0.0,0.0,36,0.00,,,0.00,WUHU216HW,2013-02-15 03:55:00,
2013-02-14 20:56:00,49.7,23.6,30.07,North,0,0.0,0.0,36,0.00,,,0.00,WUHU216HW,2013-02-15 03:56:00,
2013-02-14 20:57:00,49.3,23.3,30.07,North,0,0.0,0.0,36,0.00,,,0.00,WUHU216HW,2013-02-15 03:57:00,
2013-02-14 20:59:00,49.1,23.1,30.07,North,0,0.0,0.0,36,0.00,,,0.00,WUHU216HW,2013-02-15 03:59:00,
2013-02-14 21:01:00,48.8,22.9,30.07,North,0,0.0,0.0,36,0.00,,,0.00,WUHU216HW,2013-02-15 04:01:00,
2013-02-14 21:02:00,48.8,22.9,30.07,North,0,0.0,0.0,36,0.00,,,0.00,WUHU216HW,2013-02-15 04:02:00,
2013-02-14 21:04:00,48.6,22.7,30.07,North,0,0.0,0.0,36,0.00,,,0.00,WUHU216HW,2013-02-15 04:04:00,
2013-02-14 21:07:00,48.4,22.5,30.07,North,0,0.0,0.0,36,0.00,,,0.00,WUHU216HW,2013-02-15 04:07:00,
2013-02-14 21:09:00,48.4,23.2,30.07,North,0,0.0,0.0,37,0.00,,,0.00,WUHU216HW,2013-02-15 04:09:00,
2013-02-14 21:10:00,48.4,23.2,30.07,North,0,0.0,0.0,37,0.00,,,0.00,WUHU216HW,2013-02-15 04:10:00,
2013-02-14 21:12:00,48.2,23.1,30.07,North,0,0.0,0.0,37,0.00,,,0.00,WUHU216HW,2013-02-15 04:12:00,
2013-02-14 21:13:00,48.2,23.1,30.07,North,0,0.0,0.0,37,0.00,,,0.00,WUHU216HW,2013-02-15 04:13:00,
2013-02-14 21:15:00,48.1,22.9,30.07,North,0,0.0,0.0,37,0.00,,,0.00,WUHU216HW,2013-02-15 04:15:00,
2013-02-14 21:18:00,47.7,22.5,30.07,North,0,0.0,0.0,37,0.00,,,0.00,WUHU216HW,2013-02-15 04:18:00,
2013-02-14 21:19:00,47.7,22.5,30.07,North,0,0.0,0.0,37,0.00,,,0.00,WUHU216HW,2013-02-15 04:19:00,
2013-02-14 21:20:00,47.5,22.4,30.07,North,0,0.0,0.0,37,0.00,,,0.00,WUHU216HW,2013-02-15 04:20:00,
2013-02-14 21:21:00,47.5,22.4,30.07,North,0,0.0,0.0,37,0.00,,,0.00,WUHU216HW,2013-02-15 04:21:00,
2013-02-14 21:23:00,47.5,22.4,30.07,North,0,0.0,0.0,37,0.00,,,0.00,WUHU216HW,2013-02-15 04:23:00,
2013-02-14 21:24:00,47.5,22.4,30.07,North,0,0.0,0.0,37,0.00,,,0.00,WUHU216HW,2013-02-15 04:24:00,
2013-02-14 21:25:00,47.5,22.4,30.07,North,0,0.0,0.0,37,0.00,,,0.00,WUHU216HW,2013-02-15 04:25:00,
2013-02-14 21:26:00,47.5,23.0,30.08,North,0,0.0,0.0,38,0.00,,,0.00,WUHU216HW,2013-02-15 04:26:00,
2013-02-14 21:28:00,47.3,22.9,30.07,North,0,0.0,0.0,38,0.00,,,0.00,WUHU216HW,2013-02-15 04:28:00,
2013-02-14 21:29:00,47.2,22.7,30.07,North,0,0.0,0.0,38,0.00,,,0.00,WUHU216HW,2013-02-15 04:29:00,
2013-02-14 21:30:00,47.2,22.7,30.07,North,0,0.0,0.0,38,0.00,,,0.00,WUHU216HW,2013-02-15 04:30:00,
2013-02-14 21:31:00,47.2,22.7,30.07,North,0,0.0,0.0,38,0.00,,,0.00,WUHU216HW,2013-02-15 04:31:00,
2013-02-14 21:34:00,46.8,21.7,30.08,North,0,0.0,0.0,37,0.00,,,0.00,WUHU216HW,2013-02-15 04:34:00,
2013-02-14 21:36:00,46.8,21.7,30.08,North,0,0.0,0.0,37,0.00,,,0.00,WUHU216HW,2013-02-15 04:36:00,
2013-02-14 21:39:00,46.6,22.2,30.08,North,0,0.0,0.0,38,0.00,,,0.00,WUHU216HW,2013-02-15 04:39:00,
2013-02-14 21:41:00,46.4,22.1,30.08,North,0,0.0,0.0,38,0.00,,,0.00,WUHU216HW,2013-02-15 04:41:00,
2013-02-14 21:42:00,46.4,22.1,30.08,North,0,0.0,0.0,38,0.00,,,0.00,WUHU216HW,2013-02-15 04:42:00,
2013-02-14 21:45:00,46.4,22.1,30.08,North,0,0.0,0.0,38,0.00,,,0.00,WUHU216HW,2013-02-15 04:45:00,
2013-02-14 21:46:00,46.4,22.1,30.08,North,0,0.0,0.0,38,0.00,,,0.00,WUHU216HW,2013-02-15 04:46:00,
2013-02-14 21:47:00,46.4,22.1,30.08,North,0,0.0,0.0,38,0.00,,,0.00,WUHU216HW,2013-02-15 04:47:00,
2013-02-14 21:48:00,46.4,22.1,30.08,North,0,0.0,0.0,38,0.00,,,0.00,WUHU216HW,2013-02-15 04:48:00,
2013-02-14 21:51:00,46.4,22.1,30.08,North,0,0.0,0.0,38,0.00,,,0.00,WUHU216HW,2013-02-15 04:51:00,
2013-02-14 21:53:00,46.3,21.9,30.08,North,0,0.0,0.0,38,0.00,,,0.00,WUHU216HW,2013-02-15 04:53:00,
2013-02-14 21:54:00,46.3,21.9,30.08,North,0,0.0,0.0,38,0.00,,,0.00,WUHU216HW,2013-02-15 04:54:00,
2013-02-14 21:56:00,46.1,21.8,30.08,North,0,0.0,0.0,38,0.00,,,0.00,WUHU216HW,2013-02-15 04:56:00,
2013-02-14 21:58:00,46.1,21.8,30.08,North,0,0.0,0.0,38,0.00,,,0.00,WUHU216HW,2013-02-15 04:58:00,
2013-02-14 21:59:00,45.9,21.6,30.08,North,0,0.0,0.0,38,0.00,,,0.00,WUHU216HW,2013-02-15 04:59:00,
2013-02-14 22:00:00,45.9,21.6,30.08,North,0,0.0,0.0,38,0.00,,,0.00,WUHU216HW,2013-02-15 05:00:00,
2013-02-14 22:01:00,45.9,21.6,30.08,North,0,0.0,0.0,38,0.00,,,0.00,WUHU216HW,2013-02-15 05:01:00,
2013-02-14 22:05:00,45.7,21.4,30.09,North,0,0.0,0.0,38,0.00,,,0.00,WUHU216HW,2013-02-15 05:05:00,
2013-02-14 22:06:00,45.7,21.4,30.09,North,0,0.0,0.0,38,0.00,,,0.00,WUHU216HW,2013-02-15 05:06:00,
2013-02-14 22:10:00,45.7,22.1,30.09,North,0,0.0,0.0,39,0.00,,,0.00,WUHU216HW,2013-02-15 05:10:00,
2013-02-14 22:11:00,45.7,22.1,30.09,North,0,0.0,0.0,39,0.00,,,0.00,WUHU216HW,2013-02-15 05:11:00,
2013-02-14 22:15:00,45.5,22.0,30.09,North,0,0.0,0.0,39,0.00,,,0.00,WUHU216HW,2013-02-15 05:15:00,
2013-02-14 22:16:00,45.5,22.0,30.09,North,0,0.0,0.0,39,0.00,,,0.00,WUHU216HW,2013-02-15 05:16:00,
2013-02-14 22:17:00,45.5,22.0,30.09,North,0,0.0,0.0,39,0.00,,,0.00,WUHU216HW,2013-02-15 05:17:00,
2013-02-14 22:21:00,45.5,22.0,30.09,North,0,0.0,0.0,39,0.00,,,0.00,WUHU216HW,2013-02-15 05:21:00,
2013-02-14 22:22:00,45.5,22.0,30.09,North,0,0.0,0.0,39,0.00,,,0.00,WUHU216HW,2013-02-15 05:22:00,
2013-02-14 22:23:00,45.5,22.0,30.09,North,0,0.0,0.0,39,0.00,,,0.00,WUHU216HW,2013-02-15 05:23:00,
2013-02-14 22:26:00,45.4,21.8,30.09,North,0,0.0,0.0,39,0.00,,,0.00,WUHU216HW,2013-02-15 05:26:00,
2013-02-14 22:27:00,45.4,21.8,30.09,North,0,0.0,0.0,39,0.00,,,0.00,WUHU216HW,2013-02-15 05:27:00,
2013-02-14 22:30:00,45.4,21.8,30.09,North,0,0.0,0.0,39,0.00,,,0.00,WUHU216HW,2013-02-15 05:30:00,
2013-02-14 22:32:00,45.4,21.8,30.09,North,0,0.0,0.0,39,0.00,,,0.00,WUHU216HW,2013-02-15 05:32:00,
2013-02-14 22:33:00,45.4,21.8,30.09,North,0,0.0,0.0,39,0.00,,,0.00,WUHU216HW,2013-02-15 05:33:00,
2013-02-14 22:35:00,45.2,21.6,30.10,North,0,0.0,0.0,39,0.00,,,0.00,WUHU216HW,2013-02-15 05:35:00,
2013-02-14 22:37:00,45.2,21.6,30.10,North,0,0.0,0.0,39,0.00,,,0.00,WUHU216HW,2013-02-15 05:37:00,
2013-02-14 22:38:00,45.2,21.6,30.10,North,0,0.0,0.0,39,0.00,,,0.00,WUHU216HW,2013-02-15 05:38:00,
2013-02-14 22:41:00,45.0,21.4,30.10,North,0,0.0,0.0,39,0.00,,,0.00,WUHU216HW,2013-02-15 05:41:00,
2013-02-14 22:42:00,45.0,22.2,30.10,North,0,0.0,0.0,40,0.00,,,0.00,WUHU216HW,2013-02-15 05:42:00,
2013-02-14 22:43:00,44.8,22.0,30.10,North,0,0.0,0.0,40,0.00,,,0.00,WUHU216HW,2013-02-15 05:43:00,
2013-02-14 22:44:00,44.8,22.0,30.10,North,0,0.0,0.0,40,0.00,,,0.00,WUHU216HW,2013-02-15 05:44:00,
2013-02-14 22:46:00,44.5,21.6,30.10,North,0,0.0,0.0,40,0.00,,,0.00,WUHU216HW,2013-02-15 05:46:00,
2013-02-14 22:48:00,44.1,21.3,30.10,North,0,0.0,0.0,40,0.00,,,0.00,WUHU216HW,2013-02-15 05:48:00,
2013-02-14 22:49:00,43.9,21.2,30.10,North,0,0.0,0.0,40,0.00,,,0.00,WUHU216HW,2013-02-15 05:49:00,
2013-02-14 22:51:00,43.7,21.5,30.10,North,0,0.0,0.0,41,0.00,,,0.00,WUHU216HW,2013-02-15 05:51:00,
2013-02-14 22:53:00,43.7,21.5,30.10,North,0,0.0,0.0,41,0.00,,,0.00,WUHU216HW,2013-02-15 05:53:00,
2013-02-14 22:54:00,43.7,21.5,30.11,North,0,0.0,0.0,41,0.00,,,0.00,WUHU216HW,2013-02-15 05:54:00,
2013-02-14 22:57:00,43.6,21.9,30.10,North,0,0.0,0.0,42,0.00,,,0.00,WUHU216HW,2013-02-15 05:57:00,
2013-02-14 22:58:00,43.6,21.9,30.11,North,0,0.0,0.0,42,0.00,,,0.00,WUHU216HW,2013-02-15 05:58:00,
2013-02-14 22:59:00,43.6,21.9,30.11,North,0,0.0,0.0,42,0.00,,,0.00,WUHU216HW,2013-02-15 05:59:00,
2013-02-14 23:03:00,43.4,21.7,30.11,North,0,0.0,0.0,42,0.00,,,0.00,WUHU216HW,2013-02-15 06:03:00,
2013-02-14 23:04:00,43.4,21.7,30.11,North,0,0.0,0.0,42,0.00,,,0.00,WUHU216HW,2013-02-15 06:04:00,
2013-02-14 23:05:00,43.2,21.6,30.11,North,0,0.0,0.0,42,0.00,,,0.00,WUHU216HW,2013-02-15 06:05:00,
2013-02-14 23:08:00,42.8,21.8,30.11,North,0,0.0,0.0,43,0.00,,,0.00,WUHU216HW,2013-02-15 06:08:00,
2013-02-14 23:09:00,42.8,21.8,30.11,North,0,0.0,0.0,43,0.00,,,0.00,WUHU216HW,2013-02-15 06:09:00,
2013-02-14 23:10:00,42.8,21.8,30.11,North,0,0.0,0.0,43,0.00,,,0.00,WUHU216HW,2013-02-15 06:10:00,
2013-02-14 23:13:00,42.8,21.8,30.11,North,0,0.0,0.0,43,0.00,,,0.00,WUHU216HW,2013-02-15 06:13:00,
2013-02-14 23:15:00,42.8,21.8,30.11,North,0,0.0,0.0,43,0.00,,,0.00,WUHU216HW,2013-02-15 06:15:00,
2013-02-14 23:16:00,42.8,21.8,30.11,North,0,0.0,0.0,43,0.00,,,0.00,WUHU216HW,2013-02-15 06:16:00,
2013-02-14 23:18:00,42.8,21.8,30.11,North,0,0.0,0.0,43,0.00,,,0.00,WUHU216HW,2013-02-15 06:18:00,
2013-02-14 23:20:00,42.8,21.8,30.11,North,0,0.0,0.0,43,0.00,,,0.00,WUHU216HW,2013-02-15 06:20:00,
2013-02-14 23:21:00,42.8,21.8,30.11,North,0,0.0,0.0,43,0.00,,,0.00,WUHU216HW,2013-02-15 06:21:00,
2013-02-14 23:23:00,42.8,21.8,30.11,North,0,0.0,0.0,43,0.00,,,0.00,WUHU216HW,2013-02-15 06:23:00,
2013-02-14 23:26:00,43.0,22.0,30.11,North,0,0.0,0.0,43,0.00,,,0.00,WUHU216HW,2013-02-15 06:26:00,
2013-02-14 23:27:00,43.2,22.2,30.11,North,0,0.0,0.0,43,0.00,,,0.00,WUHU216HW,2013-02-15 06:27:00,
2013-02-14 23:28:00,43.2,22.2,30.11,North,0,0.0,0.0,43,0.00,,,0.00,WUHU216HW,2013-02-15 06:28:00,
2013-02-14 23:32:00,43.2,22.2,30.11,North,0,0.0,0.0,43,0.00,,,0.00,WUHU216HW,2013-02-15 06:32:00,
2013-02-14 23:33:00,43.0,22.0,30.11,North,0,0.0,0.0,43,0.00,,,0.00,WUHU216HW,2013-02-15 06:33:00,
2013-02-14 23:34:00,42.8,21.8,30.11,North,0,0.0,0.0,43,0.00,,,0.00,WUHU216HW,2013-02-15 06:34:00,
2013-02-14 23:37:00,42.8,21.8,30.11,North,0,0.0,0.0,43,0.00,,,0.00,WUHU216HW,2013-02-15 06:37:00,
2013-02-14 23:38:00,42.8,21.8,30.11,North,0,0.0,0.0,43,0.00,,,0.00,WUHU216HW,2013-02-15 06:38:00,
2013-02-14 23:39:00,42.7,21.6,30.11,North,0,0.0,0.0,43,0.00,,,0.00,WUHU216HW,2013-02-15 06:39:00,
2013-02-14 23:43:00,42.5,21.4,30.11,North,0,0.0,0.0,43,0.00,,,0.00,WUHU216HW,2013-02-15 06:43:00,
2013-02-14 23:45:00,42.5,21.4,30.11,North,0,0.0,0.0,43,0.00,,,0.00,WUHU216HW,2013-02-15 06:45:00,
2013-02-14 23:46:00,42.5,21.4,30.11,North,0,0.0,0.0,43,0.00,,,0.00,WUHU216HW,2013-02-15 06:46:00,
2013-02-14 23:48:00,42.3,21.2,30.11,North,0,0.0,0.0,43,0.00,,,0.00,WUHU216HW,2013-02-15 06:48:00,
2013-02-14 23:51:00,42.3,21.2,30.11,North,0,0.0,0.0,43,0.00,,,0.00,WUHU216HW,2013-02-15 06:51:00,
2013-02-14 23:52:00,42.1,21.6,30.11,North,0,0.0,0.0,44,0.00,,,0.00,WUHU216HW,2013-02-15 06:52:00,
2013-02-14 23:53:00,42.1,21.2,30.11,North,0,0.0,0.0,43,0.00,,,0.00,WUHU216HW,2013-02-15 06:53:00,
2013-02-14 23:54:00,42.1,21.2,30.11,North,0,0.0,0.0,43,0.00,,,0.00,WUHU216HW,2013-02-15 06:54:00,
2013-02-14 23:57:00,41.9,21.5,30.11,North,0,0.0,0.0,44,0.00,,,0.00,WUHU216HW,2013-02-15 06:57:00,
2013-02-14 23:59:00,41.8,21.3,30.11,North,0,0.0,0.0,44,0.00,,,0.00,WUHU216HW,2013-02-15 06:59:00,